Time,TemperatureF,DewpointF,PressureIn,WindDirection,WindDirectionDegrees,WindSpeedMPH,WindSpeedGustMPH,Humidity,HourlyPrecipIn,Conditions,Clouds,dailyrainin,SoftwareType,DateUTC
2013-10-01 00:01:00,61.9,56.5,30.02,NW,326,0.0,3.0,72,0.00,,,0.00,meteohub,2013-10-01 04:01:00,
2013-10-01 00:06:00,61.7,56.5,30.02,NE,56,0.0,0.0,72,0.00,,,0.00,meteohub,2013-10-01 04:06:00,
2013-10-01 00:11:00,61.5,56.8,30.02,NW,326,0.0,0.0,73,0.00,,,0.00,meteohub,2013-10-01 04:11:00,
2013-10-01 00:12:00,61.5,56.8,30.02,NW,326,0.0,0.0,73,0.00,,,0.00,meteohub,2013-10-01 04:12:00,
2013-10-01 00:16:00,61.3,56.3,30.02,NNW,348,0.0,0.0,72,0.00,,,0.00,meteohub,2013-10-01 04:16:00,
2013-10-01 00:17:00,61.3,56.3,30.02,NNE,33,0.0,0.0,72,0.00,,,0.00,meteohub,2013-10-01 04:17:00,
2013-10-01 00:18:00,61.2,56.8,30.02,NNE,33,0.0,0.0,73,0.00,,,0.00,meteohub,2013-10-01 04:18:00,
2013-10-01 00:22:00,61.2,56.8,30.02,NNE,33,0.0,0.0,73,0.00,,,0.00,meteohub,2013-10-01 04:22:00,
2013-10-01 00:23:00,61.0,56.7,30.02,ENE,78,0.0,0.0,73,0.00,,,0.00,meteohub,2013-10-01 04:23:00,
2013-10-01 00:24:00,61.0,56.7,30.02,East,100,0.0,0.0,73,0.00,,,0.00,meteohub,2013-10-01 04:24:00,
2013-10-01 00:28:00,61.0,57.0,30.02,ENE,78,0.0,0.0,74,0.00,,,0.00,meteohub,2013-10-01 04:28:00,
2013-10-01 00:29:00,61.0,57.0,30.02,NE,56,0.0,0.0,74,0.00,,,0.00,meteohub,2013-10-01 04:29:00,
2013-10-01 00:30:00,61.0,57.0,30.02,NE,56,0.0,0.0,74,0.00,,,0.00,meteohub,2013-10-01 04:30:00,
2013-10-01 00:33:00,61.0,56.7,30.02,North,10,0.0,0.0,73,0.00,,,0.00,meteohub,2013-10-01 04:33:00,
2013-10-01 00:34:00,60.8,56.8,30.02,NNE,33,0.0,0.0,74,0.00,,,0.00,meteohub,2013-10-01 04:34:00,
2013-10-01 00:35:00,60.8,56.8,30.02,NNE,33,0.0,0.0,74,0.00,,,0.00,meteohub,2013-10-01 04:35:00,
2013-10-01 00:38:00,60.8,56.8,30.02,ENE,78,0.0,0.0,74,0.00,,,0.00,meteohub,2013-10-01 04:38:00,
2013-10-01 00:39:00,60.8,56.8,30.02,ENE,78,0.0,0.0,74,0.00,,,0.00,meteohub,2013-10-01 04:39:00,
2013-10-01 00:43:00,60.6,56.8,30.02,NNW,348,0.0,0.0,74,0.00,,,0.00,meteohub,2013-10-01 04:43:00,
2013-10-01 00:44:00,60.6,56.8,30.02,NNW,348,0.0,0.0,74,0.00,,,0.00,meteohub,2013-10-01 04:44:00,
2013-10-01 00:45:00,60.8,56.5,30.02,NNW,348,0.0,0.0,73,0.00,,,0.00,meteohub,2013-10-01 04:45:00,
2013-10-01 00:50:00,60.6,56.7,30.02,North,10,0.0,0.0,74,0.00,,,0.00,meteohub,2013-10-01 04:50:00,
2013-10-01 00:51:00,60.6,56.7,30.02,NNE,33,0.0,0.0,74,0.00,,,0.00,meteohub,2013-10-01 04:51:00,
2013-10-01 00:55:00,60.4,57.0,30.02,ESE,123,0.0,0.0,75,0.00,,,0.00,meteohub,2013-10-01 04:55:00,
2013-10-01 00:56:00,60.4,57.0,30.02,ESE,123,0.0,0.0,75,0.00,,,0.00,meteohub,2013-10-01 04:56:00,
2013-10-01 00:57:00,60.4,56.8,30.02,SSE,168,0.0,0.0,75,0.00,,,0.00,meteohub,2013-10-01 04:57:00,
2013-10-01 01:00:00,60.6,56.8,30.02,SSW,213,0.0,0.0,75,0.00,,,0.00,meteohub,2013-10-01 05:00:00,
2013-10-01 01:02:00,60.6,56.8,30.02,South,190,0.0,0.0,75,0.00,,,0.00,meteohub,2013-10-01 05:02:00,
2013-10-01 01:04:00,60.8,57.2,30.02,South,190,0.0,0.0,76,0.00,,,0.00,meteohub,2013-10-01 05:04:00,
2013-10-01 01:05:00,60.8,57.2,30.02,SSE,168,0.0,0.0,76,0.00,,,0.00,meteohub,2013-10-01 05:05:00,
2013-10-01 01:07:00,60.8,57.2,30.02,SSE,168,0.0,0.0,76,0.00,,,0.00,meteohub,2013-10-01 05:07:00,
2013-10-01 01:09:00,60.6,57.0,30.02,SW,236,0.0,0.0,76,0.00,,,0.00,meteohub,2013-10-01 05:09:00,
2013-10-01 01:11:00,60.6,57.0,30.02,NNW,348,0.0,0.0,76,0.00,,,0.00,meteohub,2013-10-01 05:11:00,
2013-10-01 01:14:00,60.6,56.7,30.02,WSW,258,0.0,0.0,75,0.00,,,0.00,meteohub,2013-10-01 05:14:00,
2013-10-01 01:15:00,60.6,56.7,30.02,WNW,303,0.0,0.0,75,0.00,,,0.00,meteohub,2013-10-01 05:15:00,
2013-10-01 01:16:00,60.6,57.0,30.02,West,280,0.0,0.0,76,0.00,,,0.00,meteohub,2013-10-01 05:16:00,
2013-10-01 01:19:00,60.4,57.0,30.02,NNW,348,0.0,0.0,76,0.00,,,0.00,meteohub,2013-10-01 05:19:00,
2013-10-01 01:20:00,60.4,57.0,30.02,NNW,348,0.0,0.0,76,0.00,,,0.00,meteohub,2013-10-01 05:20:00,
2013-10-01 01:22:00,60.4,57.0,30.02,NW,326,0.0,0.0,76,0.00,,,0.00,meteohub,2013-10-01 05:22:00,
2013-10-01 01:25:00,60.4,57.0,30.02,North,10,0.0,0.0,76,0.00,,,0.00,meteohub,2013-10-01 05:25:00,
2013-10-01 01:26:00,60.4,57.0,30.02,North,10,0.0,0.0,76,0.00,,,0.00,meteohub,2013-10-01 05:26:00,
2013-10-01 01:27:00,60.3,57.4,30.02,SE,146,0.0,0.0,77,0.00,,,0.00,meteohub,2013-10-01 05:27:00,
2013-10-01 01:30:00,60.3,57.2,30.02,SW,236,0.0,0.0,77,0.00,,,0.00,meteohub,2013-10-01 05:30:00,
2013-10-01 01:31:00,60.3,57.2,30.02,SW,236,0.0,0.0,77,0.00,,,0.00,meteohub,2013-10-01 05:31:00,
2013-10-01 01:32:00,60.3,57.2,30.02,SW,236,0.0,0.0,77,0.00,,,0.00,meteohub,2013-10-01 05:32:00,
2013-10-01 01:33:00,60.1,57.0,30.02,WSW,258,0.0,0.0,77,0.00,,,0.00,meteohub,2013-10-01 05:33:00,
2013-10-01 01:35:00,60.1,57.0,30.02,SW,236,0.0,0.0,77,0.00,,,0.00,meteohub,2013-10-01 05:35:00,
2013-10-01 01:37:00,60.1,57.4,30.02,SW,236,0.0,0.0,78,0.00,,,0.00,meteohub,2013-10-01 05:37:00,
2013-10-01 01:38:00,60.1,57.4,30.02,SSW,213,0.0,0.0,78,0.00,,,0.00,meteohub,2013-10-01 05:38:00,
2013-10-01 01:40:00,60.1,57.4,30.02,SSW,213,0.0,0.0,78,0.00,,,0.00,meteohub,2013-10-01 05:40:00,
2013-10-01 01:43:00,60.3,57.4,30.05,SSW,213,0.0,0.0,78,0.00,,,0.00,meteohub,2013-10-01 05:43:00,
2013-10-01 01:44:00,60.1,57.2,30.05,SSW,213,0.0,0.0,78,0.00,,,0.00,meteohub,2013-10-01 05:44:00,
2013-10-01 01:46:00,60.1,57.2,30.05,SSW,213,0.0,0.0,78,0.00,,,0.00,meteohub,2013-10-01 05:46:00,
2013-10-01 01:48:00,60.1,57.2,30.05,SSW,213,0.0,0.0,78,0.00,,,0.00,meteohub,2013-10-01 05:48:00,
2013-10-01 01:49:00,60.1,57.6,30.05,WSW,258,0.0,0.0,79,0.00,,,0.00,meteohub,2013-10-01 05:49:00,
2013-10-01 01:51:00,60.1,57.4,30.05,ENE,78,0.0,1.0,79,0.00,,,0.00,meteohub,2013-10-01 05:51:00,
2013-10-01 01:53:00,59.9,57.4,30.05,ENE,78,0.0,1.0,79,0.00,,,0.00,meteohub,2013-10-01 05:53:00,
2013-10-01 01:54:00,59.9,57.4,30.05,ENE,78,0.0,1.0,79,0.00,,,0.00,meteohub,2013-10-01 05:54:00,
2013-10-01 01:57:00,59.9,57.4,30.05,ESE,123,0.0,1.0,79,0.00,,,0.00,meteohub,2013-10-01 05:57:00,
2013-10-01 01:58:00,59.7,57.2,30.05,ESE,123,0.0,1.0,79,0.00,,,0.00,meteohub,2013-10-01 05:58:00,
2013-10-01 01:59:00,59.7,57.2,30.05,ENE,78,0.0,1.0,79,0.00,,,0.00,meteohub,2013-10-01 05:59:00,
2013-10-01 02:00:00,59.5,57.6,30.05,NE,56,0.0,0.0,80,0.00,,,0.00,meteohub,2013-10-01 06:00:00,
2013-10-01 02:02:00,59.7,57.7,30.05,ENE,78,0.0,0.0,80,0.00,,,0.00,meteohub,2013-10-01 06:02:00,
2013-10-01 02:03:00,59.7,57.7,30.05,ENE,78,0.0,0.0,80,0.00,,,0.00,meteohub,2013-10-01 06:03:00,
2013-10-01 02:04:00,59.7,57.7,30.05,ENE,78,0.0,0.0,80,0.00,,,0.00,meteohub,2013-10-01 06:04:00,
2013-10-01 02:05:00,59.5,57.7,30.05,ENE,78,0.0,0.0,80,0.00,,,0.00,meteohub,2013-10-01 06:05:00,
2013-10-01 02:07:00,59.5,57.9,30.05,North,10,0.0,0.0,81,0.00,,,0.00,meteohub,2013-10-01 06:07:00,
2013-10-01 02:08:00,59.5,57.9,30.05,ENE,78,0.0,0.0,81,0.00,,,0.00,meteohub,2013-10-01 06:08:00,
2013-10-01 02:09:00,59.5,57.9,30.05,ENE,78,0.0,0.0,81,0.00,,,0.00,meteohub,2013-10-01 06:09:00,
2013-10-01 02:11:00,59.4,57.9,30.05,SSE,168,0.0,0.0,81,0.00,,,0.00,meteohub,2013-10-01 06:11:00,
2013-10-01 02:13:00,59.5,57.9,30.05,SE,146,0.0,0.0,81,0.00,,,0.00,meteohub,2013-10-01 06:13:00,
2013-10-01 02:14:00,59.5,57.9,30.05,SSE,168,0.0,0.0,81,0.00,,,0.00,meteohub,2013-10-01 06:14:00,
2013-10-01 02:17:00,59.5,57.9,30.05,SSW,213,0.0,0.0,81,0.00,,,0.00,meteohub,2013-10-01 06:17:00,
2013-10-01 02:18:00,59.5,57.9,30.05,SSE,168,0.0,0.0,81,0.00,,,0.00,meteohub,2013-10-01 06:18:00,
2013-10-01 02:19:00,59.7,57.9,30.05,SSE,168,3.0,0.0,81,0.00,,,0.00,meteohub,2013-10-01 06:19:00,
2013-10-01 02:20:00,59.7,57.9,30.05,SSW,213,2.0,0.0,81,0.00,,,0.00,meteohub,2013-10-01 06:20:00,
2013-10-01 02:23:00,59.9,57.7,30.05,SSW,213,0.0,3.0,81,0.00,,,0.00,meteohub,2013-10-01 06:23:00,
2013-10-01 02:24:00,59.9,57.7,30.05,SSW,213,0.0,3.0,81,0.00,,,0.00,meteohub,2013-10-01 06:24:00,
2013-10-01 02:25:00,59.9,57.7,30.05,SSW,213,0.0,3.0,81,0.00,,,0.00,meteohub,2013-10-01 06:25:00,
2013-10-01 02:28:00,59.9,57.7,30.02,SW,236,0.0,3.0,81,0.00,,,0.00,meteohub,2013-10-01 06:28:00,
2013-10-01 02:29:00,59.9,57.7,30.02,SE,146,0.0,3.0,81,0.00,,,0.00,meteohub,2013-10-01 06:29:00,
2013-10-01 02:31:00,59.7,57.7,30.02,SSW,213,0.0,3.0,81,0.00,,,0.00,meteohub,2013-10-01 06:31:00,
2013-10-01 02:33:00,59.7,57.7,30.02,East,100,0.0,3.0,81,0.00,,,0.00,meteohub,2013-10-01 06:33:00,
2013-10-01 02:34:00,59.7,57.7,30.02,ENE,78,0.0,3.0,81,0.00,,,0.00,meteohub,2013-10-01 06:34:00,
2013-10-01 02:36:00,59.5,57.2,30.02,NE,56,0.0,1.0,80,0.00,,,0.00,meteohub,2013-10-01 06:36:00,
2013-10-01 02:39:00,59.4,57.2,30.02,ENE,78,0.0,1.0,80,0.00,,,0.00,meteohub,2013-10-01 06:39:00,
2013-10-01 02:42:00,59.2,57.2,30.02,ESE,123,0.0,0.0,80,0.00,,,0.00,meteohub,2013-10-01 06:42:00,
2013-10-01 02:44:00,59.2,57.2,30.02,East,100,0.0,0.0,80,0.00,,,0.00,meteohub,2013-10-01 06:44:00,
2013-10-01 02:47:00,59.2,57.2,30.02,East,100,0.0,0.0,80,0.00,,,0.00,meteohub,2013-10-01 06:47:00,
2013-10-01 02:49:00,59.0,57.2,30.02,North,10,0.0,0.0,80,0.00,,,0.00,meteohub,2013-10-01 06:49:00,
2013-10-01 02:50:00,59.0,57.2,30.02,North,10,0.0,0.0,80,0.00,,,0.00,meteohub,2013-10-01 06:50:00,
2013-10-01 02:54:00,59.0,57.0,30.02,SW,236,0.0,0.0,80,0.00,,,0.00,meteohub,2013-10-01 06:54:00,
2013-10-01 02:55:00,59.0,57.0,30.02,SW,236,0.0,0.0,80,0.00,,,0.00,meteohub,2013-10-01 06:55:00,
2013-10-01 02:56:00,59.0,57.0,30.02,SSW,213,0.0,0.0,80,0.00,,,0.00,meteohub,2013-10-01 06:56:00,
2013-10-01 02:59:00,59.0,57.4,30.02,SW,236,0.0,0.0,81,0.00,,,0.00,meteohub,2013-10-01 06:59:00,
2013-10-01 03:00:00,59.0,57.4,30.02,SSW,213,0.0,0.0,81,0.00,,,0.00,meteohub,2013-10-01 07:00:00,
2013-10-01 03:01:00,59.2,57.4,30.02,WSW,258,0.0,0.0,81,0.00,,,0.00,meteohub,2013-10-01 07:01:00,
2013-10-01 03:06:00,59.2,57.4,30.02,North,10,0.0,0.0,81,0.00,,,0.00,meteohub,2013-10-01 07:06:00,
2013-10-01 03:07:00,59.0,57.4,30.02,NNE,33,0.0,0.0,81,0.00,,,0.00,meteohub,2013-10-01 07:07:00,
2013-10-01 03:11:00,58.8,57.2,30.02,NE,56,0.0,0.0,81,0.00,,,0.00,meteohub,2013-10-01 07:11:00,
2013-10-01 03:12:00,58.8,57.2,30.02,NNW,348,0.0,0.0,81,0.00,,,0.00,meteohub,2013-10-01 07:12:00,
2013-10-01 03:16:00,58.8,57.2,30.02,NNE,33,0.0,0.0,81,0.00,,,0.00,meteohub,2013-10-01 07:16:00,
2013-10-01 03:17:00,58.8,57.2,30.02,NNE,33,0.0,0.0,81,0.00,,,0.00,meteohub,2013-10-01 07:17:00,
2013-10-01 03:22:00,58.6,57.2,30.02,ENE,78,0.0,0.0,81,0.00,,,0.00,meteohub,2013-10-01 07:22:00,
2013-10-01 03:23:00,58.6,57.2,30.02,ENE,78,0.0,0.0,81,0.00,,,0.00,meteohub,2013-10-01 07:23:00,
2013-10-01 03:24:00,58.6,57.2,30.02,ENE,78,0.0,0.0,81,0.00,,,0.00,meteohub,2013-10-01 07:24:00,
2013-10-01 03:28:00,58.8,57.2,30.02,SW,236,0.0,0.0,81,0.00,,,0.00,meteohub,2013-10-01 07:28:00,
2013-10-01 03:29:00,58.6,57.0,30.02,WSW,258,0.0,0.0,81,0.00,,,0.00,meteohub,2013-10-01 07:29:00,
2013-10-01 03:33:00,58.6,57.0,30.02,NNW,348,0.0,0.0,81,0.00,,,0.00,meteohub,2013-10-01 07:33:00,
2013-10-01 03:34:00,58.6,57.0,30.02,NNW,348,0.0,0.0,81,0.00,,,0.00,meteohub,2013-10-01 07:34:00,
2013-10-01 03:38:00,58.6,57.0,30.02,SSW,213,0.0,0.0,81,0.00,,,0.00,meteohub,2013-10-01 07:38:00,
2013-10-01 03:39:00,58.6,57.0,30.02,SSE,168,0.0,0.0,81,0.00,,,0.00,meteohub,2013-10-01 07:39:00,
2013-10-01 03:43:00,58.6,56.8,30.02,SSW,213,0.0,0.0,81,0.00,,,0.00,meteohub,2013-10-01 07:43:00,
2013-10-01 03:44:00,58.6,56.8,30.02,SSW,213,0.0,0.0,81,0.00,,,0.00,meteohub,2013-10-01 07:44:00,
2013-10-01 03:45:00,58.6,56.8,30.02,SSE,168,0.0,1.0,81,0.00,,,0.00,meteohub,2013-10-01 07:45:00,
2013-10-01 03:48:00,58.8,56.8,30.02,SSW,213,0.0,1.0,81,0.00,,,0.00,meteohub,2013-10-01 07:48:00,
2013-10-01 03:49:00,58.8,56.8,30.02,South,190,0.0,1.0,81,0.00,,,0.00,meteohub,2013-10-01 07:49:00,
2013-10-01 03:50:00,58.8,56.8,30.02,SSE,168,0.0,1.0,81,0.00,,,0.00,meteohub,2013-10-01 07:50:00,
2013-10-01 03:53:00,58.8,56.8,30.02,NNW,348,0.0,1.0,81,0.00,,,0.00,meteohub,2013-10-01 07:53:00,
2013-10-01 03:54:00,58.6,56.7,30.02,NNW,348,0.0,1.0,81,0.00,,,0.00,meteohub,2013-10-01 07:54:00,
2013-10-01 03:57:00,58.6,56.7,30.02,NNW,348,0.0,1.0,81,0.00,,,0.00,meteohub,2013-10-01 07:57:00,
2013-10-01 03:58:00,58.5,56.7,30.02,North,10,0.0,1.0,81,0.00,,,0.00,meteohub,2013-10-01 07:58:00,
2013-10-01 04:02:00,58.5,56.7,30.02,WNW,303,0.0,0.0,81,0.00,,,0.00,meteohub,2013-10-01 08:02:00,
2013-10-01 04:03:00,58.5,56.7,30.02,SSE,168,0.0,0.0,81,0.00,,,0.00,meteohub,2013-10-01 08:03:00,
2013-10-01 04:04:00,58.6,56.7,30.02,South,190,0.0,0.0,81,0.00,,,0.00,meteohub,2013-10-01 08:04:00,
2013-10-01 04:07:00,58.6,56.7,30.02,SW,236,0.0,0.0,81,0.00,,,0.00,meteohub,2013-10-01 08:07:00,
2013-10-01 04:09:00,58.6,56.7,30.02,SW,236,0.0,0.0,81,0.00,,,0.00,meteohub,2013-10-01 08:09:00,
2013-10-01 04:12:00,58.6,56.7,30.02,WSW,258,0.0,0.0,81,0.00,,,0.00,meteohub,2013-10-01 08:12:00,
2013-10-01 04:14:00,58.8,56.7,30.02,NNW,348,0.0,0.0,81,0.00,,,0.00,meteohub,2013-10-01 08:14:00,
2013-10-01 04:17:00,58.8,57.0,30.02,NNW,348,0.0,0.0,82,0.00,,,0.00,meteohub,2013-10-01 08:17:00,
2013-10-01 04:19:00,58.8,57.0,30.02,NNW,348,0.0,0.0,82,0.00,,,0.00,meteohub,2013-10-01 08:19:00,
2013-10-01 04:22:00,58.8,57.0,30.02,NNE,33,0.0,1.0,82,0.00,,,0.00,meteohub,2013-10-01 08:22:00,
2013-10-01 04:24:00,58.8,57.0,30.02,NNE,33,0.0,1.0,82,0.00,,,0.00,meteohub,2013-10-01 08:24:00,
2013-10-01 04:28:00,58.8,57.0,30.02,WSW,258,0.0,2.0,82,0.00,,,0.00,meteohub,2013-10-01 08:28:00,
2013-10-01 04:29:00,59.0,57.0,30.02,West,280,0.0,2.0,82,0.00,,,0.00,meteohub,2013-10-01 08:29:00,
2013-10-01 04:30:00,59.0,57.0,30.02,WNW,303,0.0,2.0,82,0.00,,,0.00,meteohub,2013-10-01 08:30:00,
2013-10-01 04:33:00,59.2,57.2,30.02,WSW,258,0.0,2.0,82,0.00,,,0.00,meteohub,2013-10-01 08:33:00,
2013-10-01 04:34:00,59.2,57.2,30.02,WSW,258,0.0,2.0,82,0.00,,,0.00,meteohub,2013-10-01 08:34:00,
2013-10-01 04:36:00,59.2,57.2,30.02,West,280,0.0,2.0,82,0.00,,,0.00,meteohub,2013-10-01 08:36:00,
2013-10-01 04:39:00,59.2,57.2,30.02,NW,326,0.0,2.0,82,0.00,,,0.00,meteohub,2013-10-01 08:39:00,
2013-10-01 04:40:00,59.2,57.2,30.02,WNW,303,0.0,2.0,82,0.00,,,0.00,meteohub,2013-10-01 08:40:00,
2013-10-01 04:41:00,59.2,57.2,30.02,WSW,258,0.0,0.0,82,0.00,,,0.00,meteohub,2013-10-01 08:41:00,
2013-10-01 04:44:00,59.4,57.4,30.02,WNW,303,0.0,0.0,82,0.00,,,0.00,meteohub,2013-10-01 08:44:00,
2013-10-01 04:45:00,59.4,57.4,30.02,WNW,303,0.0,0.0,82,0.00,,,0.00,meteohub,2013-10-01 08:45:00,
2013-10-01 04:54:00,59.5,57.4,30.02,WNW,303,0.0,2.0,82,0.00,,,0.00,meteohub,2013-10-01 08:54:00,
2013-10-01 04:55:00,59.5,57.4,30.02,WNW,303,0.0,2.0,82,0.00,,,0.00,meteohub,2013-10-01 08:55:00,
2013-10-01 04:59:00,59.5,57.4,30.02,WSW,258,0.0,2.0,82,0.00,,,0.00,meteohub,2013-10-01 08:59:00,
2013-10-01 05:00:00,59.5,57.4,30.02,WNW,303,0.0,2.0,82,0.00,,,0.00,meteohub,2013-10-01 09:00:00,
2013-10-01 05:01:00,59.5,57.4,30.02,West,280,0.0,0.0,82,0.00,,,0.00,meteohub,2013-10-01 09:01:00,
2013-10-01 05:05:00,59.5,57.4,30.02,WSW,258,0.0,0.0,82,0.00,,,0.00,meteohub,2013-10-01 09:05:00,
2013-10-01 05:06:00,59.5,57.4,30.02,SW,236,0.0,0.0,82,0.00,,,0.00,meteohub,2013-10-01 09:06:00,
2013-10-01 05:10:00,59.7,57.9,30.02,WSW,258,0.0,0.0,83,0.00,,,0.00,meteohub,2013-10-01 09:10:00,
2013-10-01 05:12:00,59.7,57.9,30.02,SW,236,0.0,0.0,83,0.00,,,0.00,meteohub,2013-10-01 09:12:00,
2013-10-01 05:13:00,59.7,57.9,30.02,WSW,258,0.0,0.0,83,0.00,,,0.00,meteohub,2013-10-01 09:13:00,
2013-10-01 05:15:00,59.7,57.6,30.02,SW,236,0.0,0.0,82,0.00,,,0.00,meteohub,2013-10-01 09:15:00,
2013-10-01 05:17:00,59.9,57.6,30.02,WNW,303,0.0,0.0,82,0.00,,,0.00,meteohub,2013-10-01 09:17:00,
2013-10-01 05:19:00,59.9,57.6,30.02,WNW,303,0.0,0.0,82,0.00,,,0.00,meteohub,2013-10-01 09:19:00,
2013-10-01 05:20:00,59.9,57.6,30.02,WNW,303,0.0,0.0,82,0.00,,,0.00,meteohub,2013-10-01 09:20:00,
2013-10-01 05:23:00,59.9,57.7,30.02,WSW,258,0.0,0.0,82,0.00,,,0.00,meteohub,2013-10-01 09:23:00,
2013-10-01 05:24:00,59.9,57.7,30.02,WSW,258,0.0,0.0,82,0.00,,,0.00,meteohub,2013-10-01 09:24:00,
2013-10-01 05:26:00,59.9,57.7,30.02,WSW,258,0.0,0.0,82,0.00,,,0.00,meteohub,2013-10-01 09:26:00,
2013-10-01 05:28:00,60.1,57.7,30.02,West,280,0.0,0.0,82,0.00,,,0.00,meteohub,2013-10-01 09:28:00,
2013-10-01 05:29:00,60.1,57.7,30.02,WNW,303,0.0,0.0,82,0.00,,,0.00,meteohub,2013-10-01 09:29:00,
2013-10-01 05:32:00,60.1,57.7,30.02,WNW,303,0.0,0.0,82,0.00,,,0.00,meteohub,2013-10-01 09:32:00,
2013-10-01 05:33:00,60.1,57.7,30.02,WNW,303,0.0,0.0,82,0.00,,,0.00,meteohub,2013-10-01 09:33:00,
2013-10-01 05:35:00,60.1,57.7,30.02,WSW,258,0.0,0.0,82,0.00,,,0.00,meteohub,2013-10-01 09:35:00,
2013-10-01 05:37:00,60.1,57.7,30.02,NW,326,0.0,0.0,82,0.00,,,0.00,meteohub,2013-10-01 09:37:00,
2013-10-01 05:38:00,60.1,57.7,30.02,NW,326,0.0,0.0,82,0.00,,,0.00,meteohub,2013-10-01 09:38:00,
2013-10-01 05:40:00,60.1,57.7,30.02,North,10,0.0,0.0,82,0.00,,,0.00,meteohub,2013-10-01 09:40:00,
2013-10-01 05:42:00,60.1,57.7,30.02,NNE,33,0.0,0.0,82,0.00,,,0.00,meteohub,2013-10-01 09:42:00,
2013-10-01 05:43:00,60.1,57.7,30.02,North,10,0.0,0.0,82,0.00,,,0.00,meteohub,2013-10-01 09:43:00,
2013-10-01 05:45:00,60.3,58.3,30.02,NNE,33,0.0,0.0,83,0.00,,,0.00,meteohub,2013-10-01 09:45:00,
2013-10-01 05:47:00,60.1,58.3,30.02,North,10,0.0,0.0,83,0.00,,,0.00,meteohub,2013-10-01 09:47:00,
2013-10-01 05:49:00,60.1,57.9,30.02,NNE,33,0.0,0.0,82,0.00,,,0.00,meteohub,2013-10-01 09:49:00,
2013-10-01 05:50:00,60.1,57.9,30.02,ENE,78,0.0,0.0,82,0.00,,,0.00,meteohub,2013-10-01 09:50:00,
2013-10-01 05:53:00,60.3,57.9,30.02,East,100,0.0,0.0,82,0.00,,,0.00,meteohub,2013-10-01 09:53:00,
2013-10-01 05:54:00,60.3,57.9,30.02,ESE,123,0.0,0.0,82,0.00,,,0.00,meteohub,2013-10-01 09:54:00,
2013-10-01 05:55:00,60.3,57.9,30.02,ESE,123,0.0,0.0,82,0.00,,,0.00,meteohub,2013-10-01 09:55:00,
2013-10-01 05:58:00,60.3,57.9,30.05,SW,236,0.0,0.0,82,0.00,,,0.00,meteohub,2013-10-01 09:58:00,
2013-10-01 05:59:00,60.3,57.9,30.05,South,190,0.0,0.0,82,0.00,,,0.00,meteohub,2013-10-01 09:59:00,
2013-10-01 06:00:00,60.3,57.9,30.05,South,190,0.0,0.0,82,0.00,,,0.00,meteohub,2013-10-01 10:00:00,
2013-10-01 06:03:00,60.4,57.9,30.05,SW,236,0.0,0.0,82,0.00,,,0.00,meteohub,2013-10-01 10:03:00,
2013-10-01 06:04:00,60.4,57.9,30.05,WSW,258,0.0,0.0,82,0.00,,,0.00,meteohub,2013-10-01 10:04:00,
2013-10-01 06:06:00,60.4,57.9,30.05,West,280,0.0,1.0,82,0.00,,,0.00,meteohub,2013-10-01 10:06:00,
2013-10-01 06:08:00,60.4,57.9,30.05,SSW,213,0.0,1.0,82,0.00,,,0.00,meteohub,2013-10-01 10:08:00,
2013-10-01 06:09:00,60.4,57.9,30.05,NNW,348,0.0,1.0,82,0.00,,,0.00,meteohub,2013-10-01 10:09:00,
2013-10-01 06:11:00,60.4,57.9,30.05,NNE,33,0.0,1.0,82,0.00,,,0.00,meteohub,2013-10-01 10:11:00,
2013-10-01 06:13:00,60.6,58.1,30.05,NNE,33,0.0,1.0,82,0.00,,,0.00,meteohub,2013-10-01 10:13:00,
2013-10-01 06:15:00,60.4,58.1,30.05,North,10,0.0,1.0,82,0.00,,,0.00,meteohub,2013-10-01 10:15:00,
2013-10-01 06:16:00,60.4,58.1,30.05,NE,56,0.0,0.0,82,0.00,,,0.00,meteohub,2013-10-01 10:16:00,
2013-10-01 06:18:00,60.4,58.1,30.05,NE,56,0.0,0.0,82,0.00,,,0.00,meteohub,2013-10-01 10:18:00,
2013-10-01 06:20:00,60.4,58.1,30.05,NNE,33,0.0,0.0,82,0.00,,,0.00,meteohub,2013-10-01 10:20:00,
2013-10-01 06:21:00,60.4,58.1,30.05,NNE,33,0.0,0.0,82,0.00,,,0.00,meteohub,2013-10-01 10:21:00,
2013-10-01 06:24:00,60.4,58.1,30.05,NNE,33,0.0,0.0,82,0.00,,,0.00,meteohub,2013-10-01 10:24:00,
2013-10-01 06:26:00,60.6,58.3,30.05,North,10,0.0,0.0,82,0.00,,,0.00,meteohub,2013-10-01 10:26:00,
2013-10-01 06:27:00,60.6,58.3,30.05,North,10,0.0,0.0,82,0.00,,,0.00,meteohub,2013-10-01 10:27:00,
2013-10-01 06:29:00,60.6,58.3,30.05,SW,236,0.0,0.0,82,0.00,,,0.00,meteohub,2013-10-01 10:29:00,
2013-10-01 06:31:00,60.6,58.3,30.05,SSW,213,0.0,0.0,82,0.00,,,0.00,meteohub,2013-10-01 10:31:00,
2013-10-01 06:32:00,60.6,58.3,30.05,SSE,168,0.0,0.0,82,0.00,,,0.00,meteohub,2013-10-01 10:32:00,
2013-10-01 06:34:00,60.8,58.3,30.05,SSE,168,0.0,0.0,82,0.00,,,0.00,meteohub,2013-10-01 10:34:00,
2013-10-01 06:36:00,60.8,58.3,30.05,NNE,33,0.0,0.0,82,0.00,,,0.00,meteohub,2013-10-01 10:36:00,
2013-10-01 06:38:00,60.8,58.3,30.05,North,10,0.0,0.0,82,0.00,,,0.00,meteohub,2013-10-01 10:38:00,
2013-10-01 06:40:00,60.8,58.3,30.05,NNE,33,0.0,0.0,82,0.00,,,0.00,meteohub,2013-10-01 10:40:00,
2013-10-01 06:41:00,60.8,58.3,30.05,ENE,78,0.0,0.0,82,0.00,,,0.00,meteohub,2013-10-01 10:41:00,
2013-10-01 06:44:00,60.8,58.3,30.05,ENE,78,0.0,0.0,82,0.00,,,0.00,meteohub,2013-10-01 10:44:00,
2013-10-01 06:45:00,60.8,58.3,30.05,ENE,78,0.0,0.0,82,0.00,,,0.00,meteohub,2013-10-01 10:45:00,
2013-10-01 06:47:00,60.8,58.3,30.05,North,10,0.0,0.0,82,0.00,,,0.00,meteohub,2013-10-01 10:47:00,
2013-10-01 06:49:00,60.8,58.8,30.05,NE,56,0.0,0.0,83,0.00,,,0.00,meteohub,2013-10-01 10:49:00,
2013-10-01 06:50:00,60.8,58.8,30.05,NE,56,0.0,0.0,83,0.00,,,0.00,meteohub,2013-10-01 10:50:00,
2013-10-01 06:54:00,60.8,58.8,30.05,South,190,2.0,0.0,83,0.00,,,0.00,meteohub,2013-10-01 10:54:00,
2013-10-01 06:55:00,60.8,58.8,30.05,SSW,213,2.0,3.0,83,0.00,,,0.00,meteohub,2013-10-01 10:55:00,
2013-10-01 06:56:00,60.8,58.8,30.05,SSW,213,2.0,3.0,83,0.00,,,0.00,meteohub,2013-10-01 10:56:00,
2013-10-01 07:00:00,61.0,58.8,30.05,SSE,168,2.0,3.0,83,0.00,,,0.00,meteohub,2013-10-01 11:00:00,
2013-10-01 07:02:00,61.0,58.8,30.05,SSE,168,1.0,3.0,83,0.00,,,0.00,meteohub,2013-10-01 11:02:00,
2013-10-01 07:07:00,61.2,59.0,30.05,South,190,0.0,3.0,83,0.00,,,0.00,meteohub,2013-10-01 11:07:00,
2013-10-01 07:08:00,61.2,59.0,30.05,SSW,213,0.0,3.0,83,0.00,,,0.00,meteohub,2013-10-01 11:08:00,
2013-10-01 07:12:00,61.2,59.0,30.05,SSW,213,0.0,3.0,83,0.00,,,0.00,meteohub,2013-10-01 11:12:00,
2013-10-01 07:13:00,61.2,59.0,30.05,South,190,0.0,3.0,83,0.00,,,0.00,meteohub,2013-10-01 11:13:00,
2013-10-01 07:17:00,61.2,58.6,30.05,SSE,168,0.0,2.0,82,0.00,,,0.00,meteohub,2013-10-01 11:17:00,
2013-10-01 07:18:00,61.2,58.6,30.05,South,190,0.0,2.0,82,0.00,,,0.00,meteohub,2013-10-01 11:18:00,
2013-10-01 07:19:00,61.2,58.6,30.05,SSW,213,0.0,2.0,82,0.00,,,0.00,meteohub,2013-10-01 11:19:00,
2013-10-01 07:22:00,61.2,58.6,30.05,SSE,168,0.0,0.0,82,0.00,,,0.00,meteohub,2013-10-01 11:22:00,
2013-10-01 07:23:00,61.2,58.6,30.05,SSE,168,0.0,0.0,82,0.00,,,0.00,meteohub,2013-10-01 11:23:00,
2013-10-01 07:24:00,61.2,58.6,30.05,South,190,0.0,0.0,82,0.00,,,0.00,meteohub,2013-10-01 11:24:00,
2013-10-01 07:28:00,61.2,58.6,30.05,SSW,213,0.0,0.0,82,0.00,,,0.00,meteohub,2013-10-01 11:28:00,
2013-10-01 07:29:00,61.2,58.5,30.05,SE,146,0.0,0.0,81,0.00,,,0.00,meteohub,2013-10-01 11:29:00,
2013-10-01 07:33:00,61.2,58.5,30.05,SSE,168,0.0,0.0,81,0.00,,,0.00,meteohub,2013-10-01 11:33:00,
2013-10-01 07:34:00,61.2,58.5,30.05,SSE,168,0.0,0.0,81,0.00,,,0.00,meteohub,2013-10-01 11:34:00,
2013-10-01 07:35:00,61.2,58.5,30.05,SSE,168,0.0,0.0,81,0.00,,,0.00,meteohub,2013-10-01 11:35:00,
2013-10-01 07:38:00,61.3,58.5,30.05,ESE,123,0.0,0.0,81,0.00,,,0.00,meteohub,2013-10-01 11:38:00,
2013-10-01 07:40:00,61.3,58.6,30.05,SSE,168,0.0,0.0,81,0.00,,,0.00,meteohub,2013-10-01 11:40:00,
2013-10-01 07:41:00,61.3,58.6,30.05,SSE,168,0.0,0.0,81,0.00,,,0.00,meteohub,2013-10-01 11:41:00,
2013-10-01 07:43:00,61.3,58.6,30.05,NNE,33,0.0,0.0,81,0.00,,,0.00,meteohub,2013-10-01 11:43:00,
2013-10-01 07:45:00,61.3,58.6,30.05,NE,56,0.0,0.0,81,0.00,,,0.00,meteohub,2013-10-01 11:45:00,
2013-10-01 07:46:00,61.3,58.6,30.05,NE,56,0.0,0.0,81,0.00,,,0.00,meteohub,2013-10-01 11:46:00,
2013-10-01 07:48:00,61.3,58.6,30.05,ENE,78,0.0,0.0,81,0.00,,,0.00,meteohub,2013-10-01 11:48:00,
2013-10-01 07:50:00,61.5,58.6,30.05,ESE,123,0.0,0.0,81,0.00,,,0.00,meteohub,2013-10-01 11:50:00,
2013-10-01 07:52:00,61.5,58.6,30.05,SSE,168,0.0,0.0,81,0.00,,,0.00,meteohub,2013-10-01 11:52:00,
2013-10-01 07:54:00,61.5,58.6,30.05,SSE,168,0.0,0.0,81,0.00,,,0.00,meteohub,2013-10-01 11:54:00,
2013-10-01 07:55:00,61.5,58.5,30.05,SSE,168,0.0,0.0,81,0.00,,,0.00,meteohub,2013-10-01 11:55:00,
2013-10-01 07:57:00,61.5,58.5,30.05,SSE,168,0.0,0.0,81,0.00,,,0.00,meteohub,2013-10-01 11:57:00,
2013-10-01 07:59:00,61.5,58.6,30.05,SSW,213,0.0,0.0,81,0.00,,,0.00,meteohub,2013-10-01 11:59:00,
2013-10-01 08:00:00,61.5,58.6,30.05,South,190,0.0,0.0,81,0.00,,,0.00,meteohub,2013-10-01 12:00:00,
2013-10-01 08:02:00,61.7,58.6,30.05,SSW,213,0.0,0.0,81,0.00,,,0.00,meteohub,2013-10-01 12:02:00,
2013-10-01 08:05:00,61.7,58.6,30.05,SSE,168,0.0,0.0,81,0.00,,,0.00,meteohub,2013-10-01 12:05:00,
2013-10-01 08:08:00,61.7,58.6,30.05,SSW,213,0.0,0.0,81,0.00,,,0.00,meteohub,2013-10-01 12:08:00,
2013-10-01 08:10:00,61.7,58.6,30.05,SSW,213,0.0,0.0,81,0.00,,,0.00,meteohub,2013-10-01 12:10:00,
2013-10-01 08:11:00,61.7,58.6,30.05,SSW,213,0.0,0.0,81,0.00,,,0.00,meteohub,2013-10-01 12:11:00,
2013-10-01 08:13:00,61.9,58.8,30.05,SSW,213,1.0,0.0,81,0.00,,,0.00,meteohub,2013-10-01 12:13:00,
2013-10-01 08:16:00,61.9,58.8,30.05,SSW,213,0.0,2.0,81,0.00,,,0.00,meteohub,2013-10-01 12:16:00,
2013-10-01 08:17:00,61.9,58.8,30.05,South,190,0.0,2.0,81,0.00,,,0.00,meteohub,2013-10-01 12:17:00,
2013-10-01 08:18:00,61.9,58.8,30.05,SSW,213,0.0,2.0,81,0.00,,,0.00,meteohub,2013-10-01 12:18:00,
2013-10-01 08:21:00,61.9,58.8,30.05,SSW,213,3.0,3.0,81,0.00,,,0.00,meteohub,2013-10-01 12:21:00,
2013-10-01 08:22:00,61.9,58.6,30.05,SSW,213,2.0,2.0,81,0.00,,,0.00,meteohub,2013-10-01 12:22:00,
2013-10-01 08:24:00,61.9,58.6,30.05,South,190,2.0,2.0,81,0.00,,,0.00,meteohub,2013-10-01 12:24:00,
2013-10-01 08:26:00,61.9,58.3,30.08,SSW,213,2.0,3.0,80,0.00,,,0.00,meteohub,2013-10-01 12:26:00,
2013-10-01 08:27:00,61.9,58.3,30.08,SSW,213,1.0,3.0,80,0.00,,,0.00,meteohub,2013-10-01 12:27:00,
2013-10-01 08:30:00,61.9,58.3,30.08,SSW,213,0.0,3.0,80,0.00,,,0.00,meteohub,2013-10-01 12:30:00,
2013-10-01 08:31:00,62.1,58.3,30.08,SSE,168,2.0,3.0,80,0.00,,,0.00,meteohub,2013-10-01 12:31:00,
2013-10-01 08:33:00,62.1,58.5,30.08,South,190,2.0,3.0,80,0.00,,,0.00,meteohub,2013-10-01 12:33:00,
2013-10-01 08:35:00,62.1,58.8,30.08,South,190,0.0,3.0,81,0.00,,,0.00,meteohub,2013-10-01 12:35:00,
2013-10-01 08:37:00,62.2,58.5,30.08,South,190,2.0,3.0,80,0.00,,,0.00,meteohub,2013-10-01 12:37:00,
2013-10-01 08:38:00,62.2,58.5,30.08,WSW,258,0.0,3.0,80,0.00,,,0.00,meteohub,2013-10-01 12:38:00,
2013-10-01 08:40:00,62.4,58.8,30.08,South,190,2.0,3.0,81,0.00,,,0.00,meteohub,2013-10-01 12:40:00,
2013-10-01 08:42:00,62.4,58.6,30.08,South,190,0.0,3.0,80,0.00,,,0.00,meteohub,2013-10-01 12:42:00,
2013-10-01 08:43:00,62.6,59.0,30.08,SSW,213,0.0,3.0,81,0.00,,,0.00,meteohub,2013-10-01 12:43:00,
2013-10-01 08:45:00,62.8,59.0,30.08,NNW,348,2.0,3.0,81,0.00,,,0.00,meteohub,2013-10-01 12:45:00,
2013-10-01 08:47:00,62.8,59.0,30.08,ENE,78,0.0,3.0,81,0.00,,,0.00,meteohub,2013-10-01 12:47:00,
2013-10-01 08:48:00,63.0,59.2,30.08,East,100,0.0,3.0,81,0.00,,,0.00,meteohub,2013-10-01 12:48:00,
2013-10-01 08:51:00,63.3,59.4,30.08,WNW,303,0.0,2.0,81,0.00,,,0.00,meteohub,2013-10-01 12:51:00,
2013-10-01 08:52:00,63.3,59.4,30.08,WNW,303,0.0,2.0,81,0.00,,,0.00,meteohub,2013-10-01 12:52:00,
2013-10-01 08:54:00,63.5,59.4,30.08,SSW,213,0.0,2.0,81,0.00,,,0.00,meteohub,2013-10-01 12:54:00,
2013-10-01 08:56:00,63.5,59.2,30.08,WNW,303,0.0,2.0,80,0.00,,,0.00,meteohub,2013-10-01 12:56:00,
2013-10-01 08:57:00,63.5,59.2,30.08,WSW,258,0.0,2.0,80,0.00,,,0.00,meteohub,2013-10-01 12:57:00,
2013-10-01 09:01:00,63.7,59.2,30.08,SSW,213,0.0,2.0,80,0.00,,,0.00,meteohub,2013-10-01 13:01:00,
2013-10-01 09:02:00,63.9,59.2,30.08,WNW,303,0.0,2.0,80,0.00,,,0.00,meteohub,2013-10-01 13:02:00,
2013-10-01 09:03:00,63.9,59.2,30.08,WSW,258,0.0,2.0,80,0.00,,,0.00,meteohub,2013-10-01 13:03:00,
2013-10-01 09:06:00,64.2,59.4,30.08,NW,326,0.0,2.0,80,0.00,,,0.00,meteohub,2013-10-01 13:06:00,
2013-10-01 09:07:00,64.2,59.4,30.08,NW,326,0.0,2.0,80,0.00,,,0.00,meteohub,2013-10-01 13:07:00,
2013-10-01 09:09:00,64.4,59.5,30.08,West,280,0.0,2.0,80,0.00,,,0.00,meteohub,2013-10-01 13:09:00,
2013-10-01 09:12:00,64.6,59.5,30.08,NNE,33,0.0,0.0,80,0.00,,,0.00,meteohub,2013-10-01 13:12:00,
2013-10-01 09:15:00,64.8,59.7,30.08,NNW,348,0.0,0.0,80,0.00,,,0.00,meteohub,2013-10-01 13:15:00,
2013-10-01 09:17:00,64.8,59.4,30.08,NNW,348,0.0,0.0,79,0.00,,,0.00,meteohub,2013-10-01 13:17:00,
2013-10-01 09:18:00,64.9,59.2,30.08,NNW,348,0.0,0.0,78,0.00,,,0.00,meteohub,2013-10-01 13:18:00,
2013-10-01 09:20:00,65.1,59.4,30.08,NNE,33,0.0,0.0,78,0.00,,,0.00,meteohub,2013-10-01 13:20:00,
2013-10-01 09:22:00,65.1,59.0,30.08,NNE,33,0.0,0.0,77,0.00,,,0.00,meteohub,2013-10-01 13:22:00,
2013-10-01 09:23:00,65.1,59.0,30.08,ENE,78,0.0,0.0,77,0.00,,,0.00,meteohub,2013-10-01 13:23:00,
2013-10-01 09:26:00,65.5,59.2,30.08,ESE,123,0.0,0.0,77,0.00,,,0.00,meteohub,2013-10-01 13:26:00,
2013-10-01 09:28:00,65.5,59.2,30.08,ENE,78,0.0,0.0,77,0.00,,,0.00,meteohub,2013-10-01 13:28:00,
2013-10-01 09:32:00,65.7,59.4,30.08,NNE,33,0.0,0.0,77,0.00,,,0.00,meteohub,2013-10-01 13:32:00,
2013-10-01 09:33:00,65.8,59.4,30.08,North,10,0.0,0.0,77,0.00,,,0.00,meteohub,2013-10-01 13:33:00,
2013-10-01 09:37:00,66.0,59.2,30.08,NNW,348,0.0,0.0,76,0.00,,,0.00,meteohub,2013-10-01 13:37:00,
2013-10-01 09:38:00,66.0,59.2,30.08,NNE,33,0.0,0.0,76,0.00,,,0.00,meteohub,2013-10-01 13:38:00,
2013-10-01 09:39:00,66.0,59.2,30.08,NNE,33,0.0,0.0,76,0.00,,,0.00,meteohub,2013-10-01 13:39:00,
2013-10-01 09:42:00,66.2,59.4,30.08,NNW,348,0.0,0.0,76,0.00,,,0.00,meteohub,2013-10-01 13:42:00,
2013-10-01 09:43:00,66.2,59.4,30.08,NNE,33,0.0,0.0,76,0.00,,,0.00,meteohub,2013-10-01 13:43:00,
2013-10-01 09:44:00,66.4,59.4,30.08,North,10,0.0,0.0,76,0.00,,,0.00,meteohub,2013-10-01 13:44:00,
2013-10-01 09:47:00,66.7,59.0,30.08,ENE,78,0.0,0.0,75,0.00,,,0.00,meteohub,2013-10-01 13:47:00,
2013-10-01 09:48:00,66.7,58.6,30.08,ENE,78,0.0,0.0,74,0.00,,,0.00,meteohub,2013-10-01 13:48:00,
2013-10-01 09:49:00,66.7,59.0,30.08,North,10,0.0,0.0,75,0.00,,,0.00,meteohub,2013-10-01 13:49:00,
2013-10-01 09:52:00,66.9,59.2,30.08,NNE,33,0.0,0.0,75,0.00,,,0.00,meteohub,2013-10-01 13:52:00,
2013-10-01 09:54:00,66.9,59.2,30.08,NE,56,0.0,0.0,75,0.00,,,0.00,meteohub,2013-10-01 13:54:00,
2013-10-01 09:55:00,67.1,59.4,30.08,NE,56,0.0,0.0,75,0.00,,,0.00,meteohub,2013-10-01 13:55:00,
2013-10-01 09:58:00,67.3,59.0,30.08,NNE,33,0.0,0.0,74,0.00,,,0.00,meteohub,2013-10-01 13:58:00,
2013-10-01 09:59:00,67.5,59.2,30.08,NNE,33,0.0,0.0,74,0.00,,,0.00,meteohub,2013-10-01 13:59:00,
2013-10-01 10:00:00,67.5,58.8,30.08,NNE,33,0.0,0.0,73,0.00,,,0.00,meteohub,2013-10-01 14:00:00,
2013-10-01 10:03:00,67.6,59.0,30.08,East,100,1.0,0.0,73,0.00,,,0.00,meteohub,2013-10-01 14:03:00,
2013-10-01 10:05:00,67.5,59.0,30.08,ESE,123,0.0,0.0,73,0.00,,,0.00,meteohub,2013-10-01 14:05:00,
2013-10-01 10:08:00,67.8,59.4,30.08,NNW,348,0.0,1.0,73,0.00,,,0.00,meteohub,2013-10-01 14:08:00,
2013-10-01 10:10:00,68.0,59.9,30.08,ENE,78,0.0,1.0,74,0.00,,,0.00,meteohub,2013-10-01 14:10:00,
2013-10-01 10:11:00,68.2,59.9,30.08,ENE,78,0.0,1.0,73,0.00,,,0.00,meteohub,2013-10-01 14:11:00,
2013-10-01 10:14:00,69.4,61.0,30.08,NE,56,0.0,1.0,74,0.00,,,0.00,meteohub,2013-10-01 14:14:00,
2013-10-01 10:16:00,69.8,61.3,30.08,NNW,348,1.0,1.0,74,0.00,,,0.00,meteohub,2013-10-01 14:16:00,
2013-10-01 10:18:00,70.5,61.7,30.08,NNE,33,0.0,1.0,73,0.00,,,0.00,meteohub,2013-10-01 14:18:00,
2013-10-01 10:19:00,71.2,61.9,30.08,NNE,33,0.0,1.0,73,0.00,,,0.00,meteohub,2013-10-01 14:19:00,
2013-10-01 10:21:00,71.8,61.9,30.08,ENE,78,2.0,2.0,72,0.00,,,0.00,meteohub,2013-10-01 14:21:00,
2013-10-01 10:23:00,72.5,62.2,30.08,ENE,78,0.0,1.0,71,0.00,,,0.00,meteohub,2013-10-01 14:23:00,
2013-10-01 10:24:00,73.0,62.2,30.08,NNE,33,3.0,3.0,70,0.00,,,0.00,meteohub,2013-10-01 14:24:00,
2013-10-01 10:26:00,73.2,62.4,30.08,NNE,33,0.0,2.0,70,0.00,,,0.00,meteohub,2013-10-01 14:26:00,
2013-10-01 10:28:00,73.8,62.2,30.08,ENE,78,1.0,2.0,68,0.00,,,0.00,meteohub,2013-10-01 14:28:00,
2013-10-01 10:30:00,73.9,62.4,30.08,NE,56,2.0,2.0,68,0.00,,,0.00,meteohub,2013-10-01 14:30:00,
2013-10-01 10:31:00,74.3,62.2,30.08,ENE,78,1.0,4.0,67,0.00,,,0.00,meteohub,2013-10-01 14:31:00,
2013-10-01 10:34:00,74.8,62.4,30.08,West,280,0.0,4.0,66,0.00,,,0.00,meteohub,2013-10-01 14:34:00,
2013-10-01 10:36:00,75.0,62.2,30.08,NNW,348,2.0,4.0,65,0.00,,,0.00,meteohub,2013-10-01 14:36:00,
2013-10-01 10:37:00,75.2,62.4,30.08,NW,326,3.0,4.0,65,0.00,,,0.00,meteohub,2013-10-01 14:37:00,
2013-10-01 10:41:00,75.2,61.9,30.08,NW,326,6.0,6.0,62,0.00,,,0.00,meteohub,2013-10-01 14:41:00,
2013-10-01 10:42:00,75.4,61.2,30.08,North,10,4.0,4.0,60,0.00,,,0.00,meteohub,2013-10-01 14:42:00,
2013-10-01 10:46:00,75.6,61.0,30.08,NW,326,3.0,7.0,59,0.00,,,0.00,meteohub,2013-10-01 14:46:00,
2013-10-01 10:47:00,76.3,61.0,30.08,WNW,303,2.0,7.0,58,0.00,,,0.00,meteohub,2013-10-01 14:47:00,
2013-10-01 10:51:00,77.0,61.0,30.08,WNW,303,0.0,7.0,57,0.00,,,0.00,meteohub,2013-10-01 14:51:00,
2013-10-01 10:52:00,77.2,61.2,30.08,North,10,0.0,7.0,57,0.00,,,0.00,meteohub,2013-10-01 14:52:00,
2013-10-01 10:53:00,77.2,61.2,30.08,WSW,258,2.0,7.0,57,0.00,,,0.00,meteohub,2013-10-01 14:53:00,
2013-10-01 10:57:00,77.7,60.6,30.08,SSW,213,1.0,7.0,55,0.00,,,0.00,meteohub,2013-10-01 14:57:00,
2013-10-01 10:58:00,77.7,60.3,30.08,West,280,4.0,7.0,54,0.00,,,0.00,meteohub,2013-10-01 14:58:00,
2013-10-01 11:02:00,78.3,60.3,30.07,NNW,348,2.0,6.0,53,0.00,,,0.00,meteohub,2013-10-01 15:02:00,
2013-10-01 11:03:00,78.6,59.9,30.07,NE,56,0.0,6.0,52,0.00,,,0.00,meteohub,2013-10-01 15:03:00,
2013-10-01 11:04:00,78.8,60.1,30.07,NNW,348,3.0,6.0,52,0.00,,,0.00,meteohub,2013-10-01 15:04:00,
2013-10-01 11:07:00,78.8,59.7,30.07,NNE,33,6.0,6.0,51,0.00,,,0.00,meteohub,2013-10-01 15:07:00,
2013-10-01 11:08:00,78.8,59.7,30.07,NNW,348,2.0,6.0,51,0.00,,,0.00,meteohub,2013-10-01 15:08:00,
2013-10-01 11:09:00,79.2,59.9,30.07,NNW,348,2.0,6.0,51,0.00,,,0.00,meteohub,2013-10-01 15:09:00,
2013-10-01 11:12:00,79.3,59.7,30.04,NNW,348,6.0,6.0,50,0.00,,,0.00,meteohub,2013-10-01 15:12:00,
2013-10-01 11:13:00,79.3,59.7,30.04,NW,326,2.0,6.0,50,0.00,,,0.00,meteohub,2013-10-01 15:13:00,
2013-10-01 11:14:00,79.5,59.7,30.04,NE,56,2.0,6.0,50,0.00,,,0.00,meteohub,2013-10-01 15:14:00,
2013-10-01 11:17:00,80.4,59.7,30.04,SW,236,3.0,6.0,49,0.00,,,0.00,meteohub,2013-10-01 15:17:00,
2013-10-01 11:19:00,79.9,59.9,30.04,WSW,258,5.0,6.0,49,0.00,,,0.00,meteohub,2013-10-01 15:19:00,
2013-10-01 11:20:00,79.9,59.9,30.04,SSW,213,5.0,6.0,49,0.00,,,0.00,meteohub,2013-10-01 15:20:00,
2013-10-01 11:23:00,79.7,59.5,30.04,NNW,348,4.0,6.0,48,0.00,,,0.00,meteohub,2013-10-01 15:23:00,
2013-10-01 11:24:00,79.9,59.2,30.04,NNW,348,3.0,6.0,47,0.00,,,0.00,meteohub,2013-10-01 15:24:00,
2013-10-01 11:25:00,80.1,59.2,30.04,NNW,348,5.0,7.0,47,0.00,,,0.00,meteohub,2013-10-01 15:25:00,
2013-10-01 11:28:00,80.2,58.6,30.04,NNW,348,3.0,7.0,46,0.00,,,0.00,meteohub,2013-10-01 15:28:00,
2013-10-01 11:29:00,80.4,58.8,30.04,NNW,348,4.0,7.0,46,0.00,,,0.00,meteohub,2013-10-01 15:29:00,
2013-10-01 11:30:00,80.6,58.8,30.04,SW,236,2.0,7.0,46,0.00,,,0.00,meteohub,2013-10-01 15:30:00,
2013-10-01 11:33:00,81.0,58.6,30.04,NE,56,3.0,7.0,45,0.00,,,0.00,meteohub,2013-10-01 15:33:00,
2013-10-01 11:34:00,81.1,58.6,30.04,NNW,348,0.0,7.0,45,0.00,,,0.00,meteohub,2013-10-01 15:34:00,
2013-10-01 11:35:00,81.3,58.6,30.04,WNW,303,2.0,7.0,45,0.00,,,0.00,meteohub,2013-10-01 15:35:00,
2013-10-01 11:38:00,81.3,58.8,30.04,NNW,348,5.0,7.0,45,0.00,,,0.00,meteohub,2013-10-01 15:38:00,
2013-10-01 11:39:00,81.3,59.0,30.04,North,10,4.0,7.0,45,0.00,,,0.00,meteohub,2013-10-01 15:39:00,
2013-10-01 11:41:00,81.5,59.0,30.04,North,10,5.0,10.0,45,0.00,,,0.00,meteohub,2013-10-01 15:41:00,
2013-10-01 11:43:00,81.3,58.5,30.04,NNE,33,6.0,10.0,44,0.00,,,0.00,meteohub,2013-10-01 15:43:00,
2013-10-01 11:45:00,81.5,59.2,30.04,WNW,303,3.0,10.0,45,0.00,,,0.00,meteohub,2013-10-01 15:45:00,
2013-10-01 11:46:00,81.5,59.2,30.04,NW,326,10.0,10.0,45,0.00,,,0.00,meteohub,2013-10-01 15:46:00,
2013-10-01 11:49:00,81.3,59.2,30.04,NNE,33,6.0,10.0,45,0.00,,,0.00,meteohub,2013-10-01 15:49:00,
2013-10-01 11:51:00,81.5,59.4,30.04,WNW,303,6.0,10.0,45,0.00,,,0.00,meteohub,2013-10-01 15:51:00,
2013-10-01 11:54:00,81.7,59.0,30.04,WNW,303,2.0,10.0,44,0.00,,,0.00,meteohub,2013-10-01 15:54:00,
2013-10-01 11:56:00,81.7,59.0,30.04,West,280,4.0,10.0,44,0.00,,,0.00,meteohub,2013-10-01 15:56:00,
2013-10-01 11:59:00,82.0,59.4,30.04,NNW,348,6.0,10.0,44,0.00,,,0.00,meteohub,2013-10-01 15:59:00,
2013-10-01 12:02:00,81.5,58.6,30.04,NNW,348,4.0,10.0,43,0.00,,,0.00,meteohub,2013-10-01 16:02:00,
2013-10-01 12:04:00,82.0,58.8,30.04,NNW,348,2.0,10.0,43,0.00,,,0.00,meteohub,2013-10-01 16:04:00,
2013-10-01 12:07:00,81.9,58.8,30.04,West,280,6.0,8.0,43,0.00,,,0.00,meteohub,2013-10-01 16:07:00,
2013-10-01 12:08:00,81.9,58.8,30.04,West,280,4.0,8.0,43,0.00,,,0.00,meteohub,2013-10-01 16:08:00,
2013-10-01 12:09:00,82.2,59.0,30.04,NNE,33,2.0,8.0,43,0.00,,,0.00,meteohub,2013-10-01 16:09:00,
2013-10-01 12:12:00,82.0,59.0,30.04,NNW,348,6.0,8.0,43,0.00,,,0.00,meteohub,2013-10-01 16:12:00,
2013-10-01 12:13:00,82.0,59.2,30.04,NNE,33,8.0,8.0,43,0.00,,,0.00,meteohub,2013-10-01 16:13:00,
2013-10-01 12:14:00,82.0,59.2,30.04,NNE,33,5.0,8.0,43,0.00,,,0.00,meteohub,2013-10-01 16:14:00,
2013-10-01 12:18:00,82.4,59.2,30.04,NNW,348,5.0,8.0,43,0.00,,,0.00,meteohub,2013-10-01 16:18:00,
2013-10-01 12:20:00,82.6,59.4,30.04,NNW,348,3.0,8.0,43,0.00,,,0.00,meteohub,2013-10-01 16:20:00,
2013-10-01 12:23:00,82.9,59.4,30.04,NNE,33,3.0,8.0,43,0.00,,,0.00,meteohub,2013-10-01 16:23:00,
2013-10-01 12:24:00,83.1,59.4,30.04,NE,56,4.0,8.0,43,0.00,,,0.00,meteohub,2013-10-01 16:24:00,
2013-10-01 12:25:00,83.5,59.4,30.04,NNW,348,1.0,8.0,43,0.00,,,0.00,meteohub,2013-10-01 16:25:00,
2013-10-01 12:28:00,82.8,59.4,30.04,NNE,33,1.0,8.0,43,0.00,,,0.00,meteohub,2013-10-01 16:28:00,
2013-10-01 12:29:00,82.6,59.4,30.04,NNE,33,9.0,9.0,43,0.00,,,0.00,meteohub,2013-10-01 16:29:00,
2013-10-01 12:30:00,82.8,59.4,30.04,NNE,33,6.0,8.0,43,0.00,,,0.00,meteohub,2013-10-01 16:30:00,
2013-10-01 12:31:00,82.8,59.4,30.04,ESE,123,2.0,9.0,43,0.00,,,0.00,meteohub,2013-10-01 16:31:00,
2013-10-01 12:33:00,83.1,59.4,30.04,NNE,33,6.0,9.0,43,0.00,,,0.00,meteohub,2013-10-01 16:33:00,
2013-10-01 12:35:00,83.1,59.5,30.04,ENE,78,3.0,9.0,43,0.00,,,0.00,meteohub,2013-10-01 16:35:00,
2013-10-01 12:37:00,83.3,59.4,30.04,North,10,2.0,9.0,43,0.00,,,0.00,meteohub,2013-10-01 16:37:00,
2013-10-01 12:39:00,83.1,59.4,30.04,NW,326,3.0,9.0,43,0.00,,,0.00,meteohub,2013-10-01 16:39:00,
2013-10-01 12:40:00,82.9,59.4,30.04,WNW,303,2.0,9.0,43,0.00,,,0.00,meteohub,2013-10-01 16:40:00,
2013-10-01 12:42:00,83.5,59.4,30.04,NNE,33,1.0,9.0,43,0.00,,,0.00,meteohub,2013-10-01 16:42:00,
2013-10-01 12:44:00,84.0,59.5,30.04,NE,56,2.0,9.0,43,0.00,,,0.00,meteohub,2013-10-01 16:44:00,
2013-10-01 12:46:00,84.2,59.2,30.04,NNE,33,5.0,6.0,42,0.00,,,0.00,meteohub,2013-10-01 16:46:00,
2013-10-01 12:47:00,84.0,59.2,30.04,ESE,123,2.0,6.0,42,0.00,,,0.00,meteohub,2013-10-01 16:47:00,
2013-10-01 12:49:00,84.4,59.2,30.04,NNW,348,4.0,6.0,42,0.00,,,0.00,meteohub,2013-10-01 16:49:00,
2013-10-01 12:51:00,84.4,59.2,30.04,West,280,6.0,6.0,42,0.00,,,0.00,meteohub,2013-10-01 16:51:00,
2013-10-01 12:52:00,84.2,60.1,30.04,WSW,258,4.0,6.0,43,0.00,,,0.00,meteohub,2013-10-01 16:52:00,
2013-10-01 12:54:00,84.6,59.4,30.04,WSW,258,4.0,6.0,42,0.00,,,0.00,meteohub,2013-10-01 16:54:00,
2013-10-01 12:56:00,84.0,59.5,30.01,WSW,258,7.0,7.0,42,0.00,,,0.00,meteohub,2013-10-01 16:56:00,
2013-10-01 12:58:00,83.7,59.5,30.01,WSW,258,3.0,6.0,42,0.00,,,0.00,meteohub,2013-10-01 16:58:00,
2013-10-01 12:59:00,83.8,59.5,30.01,West,280,4.0,6.0,42,0.00,,,0.00,meteohub,2013-10-01 16:59:00,
2013-10-01 13:02:00,84.0,59.0,30.01,SW,236,2.0,11.0,41,0.00,,,0.00,meteohub,2013-10-01 17:02:00,
2013-10-01 13:03:00,83.5,59.0,30.01,SW,236,4.0,11.0,41,0.00,,,0.00,meteohub,2013-10-01 17:03:00,
2013-10-01 13:04:00,83.8,59.0,30.01,WNW,303,3.0,11.0,41,0.00,,,0.00,meteohub,2013-10-01 17:04:00,
2013-10-01 13:07:00,84.2,59.0,30.01,North,10,3.0,11.0,41,0.00,,,0.00,meteohub,2013-10-01 17:07:00,
2013-10-01 13:08:00,84.6,59.0,30.01,ENE,78,6.0,11.0,41,0.00,,,0.00,meteohub,2013-10-01 17:08:00,
2013-10-01 13:09:00,84.7,59.0,30.01,NNW,348,4.0,11.0,41,0.00,,,0.00,meteohub,2013-10-01 17:09:00,
2013-10-01 13:12:00,84.9,59.0,30.01,NE,56,4.0,11.0,41,0.00,,,0.00,meteohub,2013-10-01 17:12:00,
2013-10-01 13:13:00,84.9,58.5,30.01,NNW,348,4.0,11.0,40,0.00,,,0.00,meteohub,2013-10-01 17:13:00,
2013-10-01 13:15:00,84.7,58.5,30.01,North,10,7.0,8.0,40,0.00,,,0.00,meteohub,2013-10-01 17:15:00,
2013-10-01 13:17:00,84.7,58.5,30.01,WNW,303,4.0,8.0,40,0.00,,,0.00,meteohub,2013-10-01 17:17:00,
2013-10-01 13:18:00,84.6,58.5,30.01,NNE,33,5.0,8.0,40,0.00,,,0.00,meteohub,2013-10-01 17:18:00,
2013-10-01 13:20:00,84.6,58.5,30.01,WNW,303,7.0,8.0,40,0.00,,,0.00,meteohub,2013-10-01 17:20:00,
2013-10-01 13:22:00,84.6,58.5,30.01,SSW,213,6.0,8.0,40,0.00,,,0.00,meteohub,2013-10-01 17:22:00,
2013-10-01 13:24:00,83.8,58.5,30.01,WSW,258,4.0,8.0,40,0.00,,,0.00,meteohub,2013-10-01 17:24:00,
2013-10-01 13:26:00,84.4,58.5,30.01,SW,236,6.0,9.0,40,0.00,,,0.00,meteohub,2013-10-01 17:26:00,
2013-10-01 13:28:00,84.6,58.6,30.01,WSW,258,6.0,9.0,40,0.00,,,0.00,meteohub,2013-10-01 17:28:00,
2013-10-01 13:29:00,84.6,58.6,30.01,WSW,258,5.0,9.0,40,0.00,,,0.00,meteohub,2013-10-01 17:29:00,
2013-10-01 13:32:00,84.0,58.8,30.01,WSW,258,9.0,9.0,40,0.00,,,0.00,meteohub,2013-10-01 17:32:00,
2013-10-01 13:33:00,84.0,58.8,30.01,WSW,258,9.0,9.0,40,0.00,,,0.00,meteohub,2013-10-01 17:33:00,
2013-10-01 13:35:00,83.8,57.9,30.01,WNW,303,3.0,9.0,39,0.00,,,0.00,meteohub,2013-10-01 17:35:00,
2013-10-01 13:37:00,83.1,58.3,30.01,NNW,348,6.0,9.0,40,0.00,,,0.00,meteohub,2013-10-01 17:37:00,
2013-10-01 13:38:00,82.8,58.3,30.01,NNW,348,6.0,9.0,40,0.00,,,0.00,meteohub,2013-10-01 17:38:00,
2013-10-01 13:40:00,83.3,57.6,30.01,WSW,258,1.0,9.0,39,0.00,,,0.00,meteohub,2013-10-01 17:40:00,
2013-10-01 13:43:00,83.5,58.1,30.01,SSE,168,2.0,9.0,40,0.00,,,0.00,meteohub,2013-10-01 17:43:00,
2013-10-01 13:45:00,82.9,57.7,30.01,WSW,258,5.0,9.0,40,0.00,,,0.00,meteohub,2013-10-01 17:45:00,
2013-10-01 13:48:00,82.6,57.7,30.01,NW,326,5.0,9.0,40,0.00,,,0.00,meteohub,2013-10-01 17:48:00,
2013-10-01 13:50:00,83.1,58.5,30.01,WSW,258,3.0,7.0,41,0.00,,,0.00,meteohub,2013-10-01 17:50:00,
2013-10-01 13:53:00,83.5,58.5,30.01,WSW,258,2.0,7.0,41,0.00,,,0.00,meteohub,2013-10-01 17:53:00,
2013-10-01 13:56:00,84.0,58.8,30.01,WNW,303,1.0,6.0,41,0.00,,,0.00,meteohub,2013-10-01 17:56:00,
2013-10-01 13:58:00,83.5,57.9,29.99,NNW,348,4.0,6.0,40,0.00,,,0.00,meteohub,2013-10-01 17:58:00,
2013-10-01 14:01:00,83.1,57.7,29.99,NNE,33,2.0,6.0,40,0.00,,,0.00,meteohub,2013-10-01 18:01:00,
2013-10-01 14:03:00,83.8,57.7,29.99,NW,326,3.0,6.0,40,0.00,,,0.00,meteohub,2013-10-01 18:03:00,
2013-10-01 14:04:00,83.8,57.7,29.99,NNW,348,2.0,6.0,40,0.00,,,0.00,meteohub,2013-10-01 18:04:00,
2013-10-01 14:07:00,83.8,58.1,29.99,WSW,258,6.0,6.0,40,0.00,,,0.00,meteohub,2013-10-01 18:07:00,
2013-10-01 14:09:00,83.5,58.1,29.99,WSW,258,8.0,8.0,40,0.00,,,0.00,meteohub,2013-10-01 18:09:00,
2013-10-01 14:12:00,84.2,58.5,29.98,WSW,258,11.0,11.0,40,0.00,,,0.00,meteohub,2013-10-01 18:12:00,
2013-10-01 14:14:00,84.0,57.9,29.99,SSW,213,10.0,10.0,39,0.00,,,0.00,meteohub,2013-10-01 18:14:00,
2013-10-01 14:17:00,83.8,57.9,29.99,SW,236,9.0,11.0,39,0.00,,,0.00,meteohub,2013-10-01 18:17:00,
2013-10-01 14:20:00,83.8,57.9,29.99,SW,236,8.0,11.0,39,0.00,,,0.00,meteohub,2013-10-01 18:20:00,
2013-10-01 14:23:00,83.8,56.7,29.99,South,190,9.0,13.0,37,0.00,,,0.00,meteohub,2013-10-01 18:23:00,
2013-10-01 14:26:00,83.5,57.2,29.99,SSW,213,9.0,13.0,38,0.00,,,0.00,meteohub,2013-10-01 18:26:00,
2013-10-01 14:28:00,83.5,57.2,29.99,WSW,258,4.0,13.0,38,0.00,,,0.00,meteohub,2013-10-01 18:28:00,
2013-10-01 14:31:00,83.5,57.9,29.99,WSW,258,4.0,15.0,39,0.00,,,0.00,meteohub,2013-10-01 18:31:00,
2013-10-01 14:33:00,83.3,57.9,29.99,SW,236,4.0,15.0,39,0.00,,,0.00,meteohub,2013-10-01 18:33:00,
2013-10-01 14:36:00,83.1,57.7,29.99,WNW,303,3.0,15.0,39,0.00,,,0.00,meteohub,2013-10-01 18:36:00,
2013-10-01 14:38:00,82.8,57.6,29.99,WNW,303,3.0,15.0,39,0.00,,,0.00,meteohub,2013-10-01 18:38:00,
2013-10-01 14:41:00,83.5,57.6,29.99,WSW,258,3.0,11.0,39,0.00,,,0.00,meteohub,2013-10-01 18:41:00,
2013-10-01 14:42:00,83.5,57.6,29.99,WSW,258,3.0,11.0,39,0.00,,,0.00,meteohub,2013-10-01 18:42:00,
2013-10-01 14:44:00,84.0,57.6,29.99,NNW,348,2.0,11.0,39,0.00,,,0.00,meteohub,2013-10-01 18:44:00,
2013-10-01 14:46:00,83.8,57.2,29.99,North,10,3.0,8.0,39,0.00,,,0.00,meteohub,2013-10-01 18:46:00,
2013-10-01 14:47:00,83.5,57.2,29.99,NE,56,4.0,8.0,39,0.00,,,0.00,meteohub,2013-10-01 18:47:00,
2013-10-01 14:49:00,83.1,57.0,29.99,WNW,303,2.0,8.0,39,0.00,,,0.00,meteohub,2013-10-01 18:49:00,
2013-10-01 14:52:00,82.9,56.8,29.99,WNW,303,3.0,8.0,39,0.00,,,0.00,meteohub,2013-10-01 18:52:00,
2013-10-01 14:55:00,82.9,56.7,29.99,WSW,258,7.0,8.0,39,0.00,,,0.00,meteohub,2013-10-01 18:55:00,
2013-10-01 14:57:00,82.9,56.7,29.99,West,280,5.0,8.0,39,0.00,,,0.00,meteohub,2013-10-01 18:57:00,
2013-10-01 15:00:00,83.7,56.8,29.99,NNW,348,4.0,8.0,39,0.00,,,0.00,meteohub,2013-10-01 19:00:00,
2013-10-01 15:03:00,82.9,56.7,29.99,ENE,78,0.0,8.0,39,0.00,,,0.00,meteohub,2013-10-01 19:03:00,
2013-10-01 15:05:00,82.8,56.5,29.99,NNW,348,9.0,9.0,39,0.00,,,0.00,meteohub,2013-10-01 19:05:00,
2013-10-01 15:09:00,82.4,57.0,29.99,North,10,2.0,8.0,40,0.00,,,0.00,meteohub,2013-10-01 19:09:00,
2013-10-01 15:10:00,82.0,57.0,29.99,WSW,258,3.0,9.0,40,0.00,,,0.00,meteohub,2013-10-01 19:10:00,
2013-10-01 15:14:00,82.0,56.8,29.99,NE,56,2.0,9.0,40,0.00,,,0.00,meteohub,2013-10-01 19:14:00,
2013-10-01 15:15:00,82.0,56.8,29.99,West,280,1.0,9.0,40,0.00,,,0.00,meteohub,2013-10-01 19:15:00,
2013-10-01 15:16:00,81.9,56.7,29.99,WNW,303,3.0,9.0,40,0.00,,,0.00,meteohub,2013-10-01 19:16:00,
2013-10-01 15:19:00,81.3,56.5,29.99,West,280,4.0,9.0,40,0.00,,,0.00,meteohub,2013-10-01 19:19:00,
2013-10-01 15:20:00,81.3,56.5,29.99,West,280,4.0,9.0,40,0.00,,,0.00,meteohub,2013-10-01 19:20:00,
2013-10-01 15:21:00,81.3,56.5,29.99,SSW,213,4.0,9.0,40,0.00,,,0.00,meteohub,2013-10-01 19:21:00,
2013-10-01 15:25:00,81.1,56.3,29.99,NNW,348,2.0,9.0,40,0.00,,,0.00,meteohub,2013-10-01 19:25:00,
2013-10-01 15:27:00,81.7,56.5,29.99,WNW,303,4.0,7.0,40,0.00,,,0.00,meteohub,2013-10-01 19:27:00,
2013-10-01 15:30:00,81.7,56.5,29.99,SW,236,2.0,7.0,40,0.00,,,0.00,meteohub,2013-10-01 19:30:00,
2013-10-01 15:31:00,81.7,56.5,29.99,WSW,258,4.0,7.0,40,0.00,,,0.00,meteohub,2013-10-01 19:31:00,
2013-10-01 15:32:00,82.6,56.5,29.99,North,10,0.0,7.0,40,0.00,,,0.00,meteohub,2013-10-01 19:32:00,
2013-10-01 15:35:00,83.1,56.5,29.99,ESE,123,1.0,7.0,40,0.00,,,0.00,meteohub,2013-10-01 19:35:00,
2013-10-01 15:36:00,83.1,56.5,29.99,WNW,303,2.0,5.0,40,0.00,,,0.00,meteohub,2013-10-01 19:36:00,
2013-10-01 15:37:00,83.5,55.8,29.99,NNW,348,1.0,5.0,39,0.00,,,0.00,meteohub,2013-10-01 19:37:00,
2013-10-01 15:40:00,83.7,55.8,29.99,West,280,3.0,5.0,39,0.00,,,0.00,meteohub,2013-10-01 19:40:00,
2013-10-01 15:41:00,83.7,55.8,29.95,WSW,258,2.0,5.0,39,0.00,,,0.00,meteohub,2013-10-01 19:41:00,
2013-10-01 15:42:00,83.7,56.3,29.95,SSE,168,1.0,5.0,40,0.00,,,0.00,meteohub,2013-10-01 19:42:00,
2013-10-01 15:45:00,83.5,56.3,29.96,SSW,213,2.0,5.0,40,0.00,,,0.00,meteohub,2013-10-01 19:45:00,
2013-10-01 15:46:00,83.5,56.3,29.96,WSW,258,1.0,5.0,40,0.00,,,0.00,meteohub,2013-10-01 19:46:00,
2013-10-01 15:48:00,83.1,56.3,29.96,NW,326,6.0,6.0,40,0.00,,,0.00,meteohub,2013-10-01 19:48:00,
2013-10-01 15:50:00,82.8,56.3,29.96,WSW,258,4.0,6.0,40,0.00,,,0.00,meteohub,2013-10-01 19:50:00,
2013-10-01 15:52:00,82.9,56.3,29.96,SSE,168,0.0,6.0,40,0.00,,,0.00,meteohub,2013-10-01 19:52:00,
2013-10-01 15:53:00,82.9,56.3,29.96,West,280,1.0,6.0,40,0.00,,,0.00,meteohub,2013-10-01 19:53:00,
2013-10-01 15:55:00,82.8,55.6,29.96,WNW,303,3.0,6.0,39,0.00,,,0.00,meteohub,2013-10-01 19:55:00,
2013-10-01 15:58:00,82.9,55.6,29.96,WSW,258,2.0,6.0,39,0.00,,,0.00,meteohub,2013-10-01 19:58:00,
2013-10-01 15:59:00,82.9,55.6,29.96,South,190,5.0,6.0,39,0.00,,,0.00,meteohub,2013-10-01 19:59:00,
2013-10-01 16:01:00,82.2,55.6,29.96,WSW,258,6.0,6.0,39,0.00,,,0.00,meteohub,2013-10-01 20:01:00,
2013-10-01 16:03:00,82.2,55.6,29.96,ENE,78,4.0,6.0,39,0.00,,,0.00,meteohub,2013-10-01 20:03:00,
2013-10-01 16:04:00,82.2,55.6,29.96,WNW,303,3.0,6.0,39,0.00,,,0.00,meteohub,2013-10-01 20:04:00,
2013-10-01 16:06:00,82.2,55.6,29.96,WSW,258,3.0,8.0,39,0.00,,,0.00,meteohub,2013-10-01 20:06:00,
2013-10-01 16:09:00,82.0,55.4,29.96,West,280,5.0,8.0,39,0.00,,,0.00,meteohub,2013-10-01 20:09:00,
2013-10-01 16:10:00,81.9,55.4,29.96,WNW,303,5.0,8.0,39,0.00,,,0.00,meteohub,2013-10-01 20:10:00,
2013-10-01 16:12:00,81.7,55.4,29.96,West,280,6.0,8.0,39,0.00,,,0.00,meteohub,2013-10-01 20:12:00,
2013-10-01 16:14:00,81.5,54.5,29.96,NW,326,6.0,8.0,38,0.00,,,0.00,meteohub,2013-10-01 20:14:00,
2013-10-01 16:15:00,81.5,55.0,29.96,WNW,303,4.0,9.0,39,0.00,,,0.00,meteohub,2013-10-01 20:15:00,
2013-10-01 16:17:00,81.5,55.0,29.96,WSW,258,0.0,9.0,39,0.00,,,0.00,meteohub,2013-10-01 20:17:00,
2013-10-01 16:19:00,81.5,54.3,29.96,North,10,2.0,9.0,38,0.00,,,0.00,meteohub,2013-10-01 20:19:00,
2013-10-01 16:21:00,81.5,55.0,29.96,NW,326,2.0,9.0,39,0.00,,,0.00,meteohub,2013-10-01 20:21:00,
2013-10-01 16:22:00,81.5,55.0,29.96,West,280,2.0,9.0,39,0.00,,,0.00,meteohub,2013-10-01 20:22:00,
2013-10-01 16:26:00,81.3,55.6,29.96,NNE,33,4.0,7.0,40,0.00,,,0.00,meteohub,2013-10-01 20:26:00,
2013-10-01 16:27:00,81.3,55.6,29.96,NNE,33,4.0,7.0,40,0.00,,,0.00,meteohub,2013-10-01 20:27:00,
2013-10-01 16:32:00,80.6,55.2,29.96,WNW,303,6.0,6.0,40,0.00,,,0.00,meteohub,2013-10-01 20:32:00,
2013-10-01 16:37:00,80.1,55.2,29.96,SW,236,6.0,9.0,40,0.00,,,0.00,meteohub,2013-10-01 20:37:00,
2013-10-01 16:42:00,79.7,55.0,29.96,West,280,6.0,9.0,40,0.00,,,0.00,meteohub,2013-10-01 20:42:00,
2013-10-01 16:43:00,79.7,55.0,29.96,West,280,2.0,9.0,40,0.00,,,0.00,meteohub,2013-10-01 20:43:00,
2013-10-01 16:47:00,79.9,54.9,29.96,WNW,303,2.0,9.0,40,0.00,,,0.00,meteohub,2013-10-01 20:47:00,
2013-10-01 16:48:00,79.9,54.9,29.96,SSW,213,3.0,9.0,40,0.00,,,0.00,meteohub,2013-10-01 20:48:00,
2013-10-01 16:53:00,80.2,54.9,29.96,WSW,258,5.0,8.0,40,0.00,,,0.00,meteohub,2013-10-01 20:53:00,
2013-10-01 16:54:00,80.4,54.9,29.96,WSW,258,3.0,8.0,40,0.00,,,0.00,meteohub,2013-10-01 20:54:00,
2013-10-01 16:58:00,80.8,54.9,29.96,WNW,303,5.0,9.0,40,0.00,,,0.00,meteohub,2013-10-01 20:58:00,
2013-10-01 16:59:00,80.8,54.9,29.96,WNW,303,4.0,9.0,40,0.00,,,0.00,meteohub,2013-10-01 20:59:00,
2013-10-01 17:03:00,80.6,54.7,29.96,WSW,258,4.0,9.0,40,0.00,,,0.00,meteohub,2013-10-01 21:03:00,
2013-10-01 17:04:00,80.4,55.4,29.96,SW,236,4.0,9.0,41,0.00,,,0.00,meteohub,2013-10-01 21:04:00,
2013-10-01 17:08:00,80.1,55.2,29.96,SSW,213,2.0,9.0,41,0.00,,,0.00,meteohub,2013-10-01 21:08:00,
2013-10-01 17:09:00,79.9,55.2,29.96,SW,236,4.0,9.0,41,0.00,,,0.00,meteohub,2013-10-01 21:09:00,
2013-10-01 17:13:00,79.5,54.5,29.96,WSW,258,4.0,6.0,40,0.00,,,0.00,meteohub,2013-10-01 21:13:00,
2013-10-01 17:14:00,79.5,54.5,29.96,SW,236,6.0,6.0,40,0.00,,,0.00,meteohub,2013-10-01 21:14:00,
2013-10-01 17:18:00,79.2,54.3,29.96,WSW,258,5.0,6.0,40,0.00,,,0.00,meteohub,2013-10-01 21:18:00,
2013-10-01 17:19:00,79.0,54.3,29.96,SSW,213,4.0,6.0,40,0.00,,,0.00,meteohub,2013-10-01 21:19:00,
2013-10-01 17:20:00,79.0,54.3,29.96,SSW,213,3.0,6.0,40,0.00,,,0.00,meteohub,2013-10-01 21:20:00,
2013-10-01 17:25:00,79.0,54.3,29.96,SW,236,0.0,6.0,40,0.00,,,0.00,meteohub,2013-10-01 21:25:00,
2013-10-01 17:30:00,79.5,54.9,29.96,SSW,213,2.0,6.0,41,0.00,,,0.00,meteohub,2013-10-01 21:30:00,
2013-10-01 17:35:00,79.5,54.7,29.96,WSW,258,2.0,6.0,41,0.00,,,0.00,meteohub,2013-10-01 21:35:00,
2013-10-01 17:36:00,79.5,54.7,29.96,WSW,258,2.0,6.0,41,0.00,,,0.00,meteohub,2013-10-01 21:36:00,
2013-10-01 17:41:00,79.2,55.4,29.96,West,280,3.0,5.0,42,0.00,,,0.00,meteohub,2013-10-01 21:41:00,
2013-10-01 17:46:00,79.3,54.7,29.96,SSW,213,4.0,5.0,41,0.00,,,0.00,meteohub,2013-10-01 21:46:00,
2013-10-01 17:52:00,79.2,55.2,29.96,SSW,213,4.0,6.0,42,0.00,,,0.00,meteohub,2013-10-01 21:52:00,
2013-10-01 17:57:00,79.0,55.0,29.96,SW,236,3.0,8.0,42,0.00,,,0.00,meteohub,2013-10-01 21:57:00,
2013-10-01 17:58:00,79.0,55.0,29.96,SSW,213,4.0,8.0,42,0.00,,,0.00,meteohub,2013-10-01 21:58:00,
2013-10-01 18:02:00,79.0,55.0,29.96,SSW,213,4.0,8.0,42,0.00,,,0.00,meteohub,2013-10-01 22:02:00,
2013-10-01 18:04:00,79.0,55.0,29.96,SSW,213,3.0,8.0,42,0.00,,,0.00,meteohub,2013-10-01 22:04:00,
2013-10-01 18:07:00,78.8,54.9,29.96,SSW,213,4.0,8.0,42,0.00,,,0.00,meteohub,2013-10-01 22:07:00,
2013-10-01 18:09:00,78.6,54.9,29.96,SSW,213,3.0,8.0,42,0.00,,,0.00,meteohub,2013-10-01 22:09:00,
2013-10-01 18:12:00,78.4,54.7,29.96,SSW,213,5.0,6.0,42,0.00,,,0.00,meteohub,2013-10-01 22:12:00,
2013-10-01 18:14:00,78.4,55.4,29.96,SW,236,4.0,6.0,43,0.00,,,0.00,meteohub,2013-10-01 22:14:00,
2013-10-01 18:17:00,78.3,55.4,29.96,South,190,4.0,6.0,43,0.00,,,0.00,meteohub,2013-10-01 22:17:00,
2013-10-01 18:20:00,78.1,55.2,29.96,SSW,213,5.0,6.0,43,0.00,,,0.00,meteohub,2013-10-01 22:20:00,
2013-10-01 18:22:00,77.9,55.9,29.96,SW,236,3.0,6.0,44,0.00,,,0.00,meteohub,2013-10-01 22:22:00,
2013-10-01 18:23:00,77.9,55.9,29.96,SSE,168,3.0,6.0,44,0.00,,,0.00,meteohub,2013-10-01 22:23:00,
2013-10-01 18:25:00,77.7,56.3,29.96,SSW,213,3.0,6.0,45,0.00,,,0.00,meteohub,2013-10-01 22:25:00,
2013-10-01 18:28:00,77.5,56.1,29.96,SSW,213,3.0,6.0,45,0.00,,,0.00,meteohub,2013-10-01 22:28:00,
2013-10-01 18:30:00,77.4,56.8,29.96,SSW,213,3.0,6.0,46,0.00,,,0.00,meteohub,2013-10-01 22:30:00,
2013-10-01 18:33:00,77.0,57.2,29.96,SSW,213,4.0,6.0,47,0.00,,,0.00,meteohub,2013-10-01 22:33:00,
2013-10-01 18:36:00,76.8,57.2,29.96,SSE,168,4.0,5.0,47,0.00,,,0.00,meteohub,2013-10-01 22:36:00,
2013-10-01 18:38:00,76.5,57.6,29.96,SSE,168,4.0,5.0,48,0.00,,,0.00,meteohub,2013-10-01 22:38:00,
2013-10-01 18:40:00,76.5,57.4,29.96,SSW,213,4.0,5.0,48,0.00,,,0.00,meteohub,2013-10-01 22:40:00,
2013-10-01 18:41:00,76.3,57.4,29.96,South,190,3.0,6.0,48,0.00,,,0.00,meteohub,2013-10-01 22:41:00,
2013-10-01 18:43:00,76.1,57.2,29.96,South,190,4.0,6.0,48,0.00,,,0.00,meteohub,2013-10-01 22:43:00,
2013-10-01 18:45:00,75.9,57.9,29.96,South,190,3.0,6.0,49,0.00,,,0.00,meteohub,2013-10-01 22:45:00,
2013-10-01 18:47:00,75.7,57.7,29.96,SSW,213,4.0,6.0,49,0.00,,,0.00,meteohub,2013-10-01 22:47:00,
2013-10-01 18:48:00,75.7,57.7,29.96,South,190,3.0,6.0,49,0.00,,,0.00,meteohub,2013-10-01 22:48:00,
2013-10-01 18:50:00,75.7,58.3,29.96,SSW,213,3.0,6.0,50,0.00,,,0.00,meteohub,2013-10-01 22:50:00,
2013-10-01 18:52:00,75.4,58.1,29.96,SSW,213,4.0,6.0,50,0.00,,,0.00,meteohub,2013-10-01 22:52:00,
2013-10-01 18:54:00,75.4,57.6,29.96,SSW,213,4.0,6.0,49,0.00,,,0.00,meteohub,2013-10-01 22:54:00,
2013-10-01 18:56:00,75.2,57.9,29.96,SSW,213,3.0,4.0,50,0.00,,,0.00,meteohub,2013-10-01 22:56:00,
2013-10-01 18:57:00,75.2,57.9,29.96,SSW,213,3.0,4.0,50,0.00,,,0.00,meteohub,2013-10-01 22:57:00,
2013-10-01 18:59:00,75.0,58.5,29.96,SSW,213,4.0,4.0,51,0.00,,,0.00,meteohub,2013-10-01 22:59:00,
2013-10-01 19:01:00,75.0,58.8,29.96,SSW,213,4.0,5.0,52,0.00,,,0.00,meteohub,2013-10-01 23:01:00,
2013-10-01 19:02:00,74.8,58.8,29.96,SSW,213,3.0,5.0,52,0.00,,,0.00,meteohub,2013-10-01 23:02:00,
2013-10-01 19:04:00,74.7,58.6,29.96,SSW,213,3.0,5.0,52,0.00,,,0.00,meteohub,2013-10-01 23:04:00,
2013-10-01 19:08:00,74.7,59.7,29.96,SSW,213,4.0,5.0,54,0.00,,,0.00,meteohub,2013-10-01 23:08:00,
2013-10-01 19:09:00,74.5,59.0,29.96,SSW,213,4.0,5.0,53,0.00,,,0.00,meteohub,2013-10-01 23:09:00,
2013-10-01 19:13:00,74.3,59.5,29.96,SW,236,3.0,5.0,54,0.00,,,0.00,meteohub,2013-10-01 23:13:00,
2013-10-01 19:14:00,74.3,58.8,29.96,SW,236,4.0,5.0,53,0.00,,,0.00,meteohub,2013-10-01 23:14:00,
2013-10-01 19:15:00,74.3,58.8,29.96,SSW,213,3.0,5.0,53,0.00,,,0.00,meteohub,2013-10-01 23:15:00,
2013-10-01 19:18:00,74.1,58.3,29.96,SSW,213,4.0,6.0,52,0.00,,,0.00,meteohub,2013-10-01 23:18:00,
2013-10-01 19:19:00,74.1,58.3,29.96,SSW,213,4.0,6.0,52,0.00,,,0.00,meteohub,2013-10-01 23:19:00,
2013-10-01 19:20:00,74.1,58.3,29.96,SW,236,5.0,6.0,52,0.00,,,0.00,meteohub,2013-10-01 23:20:00,
2013-10-01 19:23:00,73.9,58.6,29.96,South,190,4.0,6.0,53,0.00,,,0.00,meteohub,2013-10-01 23:23:00,
2013-10-01 19:24:00,73.9,58.6,29.96,WSW,258,4.0,6.0,53,0.00,,,0.00,meteohub,2013-10-01 23:24:00,
2013-10-01 19:25:00,73.9,58.6,29.96,SSW,213,3.0,6.0,53,0.00,,,0.00,meteohub,2013-10-01 23:25:00,
2013-10-01 19:28:00,73.8,58.1,29.96,SW,236,2.0,6.0,52,0.00,,,0.00,meteohub,2013-10-01 23:28:00,
2013-10-01 19:30:00,73.8,58.1,29.96,SW,236,4.0,6.0,52,0.00,,,0.00,meteohub,2013-10-01 23:30:00,
2013-10-01 19:32:00,73.8,59.0,29.96,SSW,213,3.0,6.0,54,0.00,,,0.00,meteohub,2013-10-01 23:32:00,
2013-10-01 19:34:00,73.8,59.0,29.96,WSW,258,0.0,6.0,54,0.00,,,0.00,meteohub,2013-10-01 23:34:00,
2013-10-01 19:35:00,73.6,59.0,29.96,SW,236,0.0,6.0,54,0.00,,,0.00,meteohub,2013-10-01 23:35:00,
2013-10-01 19:38:00,73.6,59.4,29.96,WSW,258,1.0,6.0,55,0.00,,,0.00,meteohub,2013-10-01 23:38:00,
2013-10-01 19:40:00,73.6,59.9,29.96,SW,236,1.0,6.0,56,0.00,,,0.00,meteohub,2013-10-01 23:40:00,
2013-10-01 19:41:00,73.6,59.9,29.96,WSW,258,0.0,6.0,56,0.00,,,0.00,meteohub,2013-10-01 23:41:00,
2013-10-01 19:43:00,73.4,59.7,29.99,WSW,258,0.0,6.0,56,0.00,,,0.00,meteohub,2013-10-01 23:43:00,
2013-10-01 19:45:00,73.4,60.3,29.99,WSW,258,2.0,6.0,57,0.00,,,0.00,meteohub,2013-10-01 23:45:00,
2013-10-01 19:46:00,73.4,60.3,29.99,SW,236,3.0,4.0,57,0.00,,,0.00,meteohub,2013-10-01 23:46:00,
2013-10-01 19:48:00,73.2,60.1,29.99,WSW,258,2.0,4.0,57,0.00,,,0.00,meteohub,2013-10-01 23:48:00,
2013-10-01 19:51:00,73.2,59.4,29.99,SW,236,0.0,4.0,56,0.00,,,0.00,meteohub,2013-10-01 23:51:00,
2013-10-01 19:53:00,73.0,59.9,29.99,SW,236,0.0,4.0,57,0.00,,,0.00,meteohub,2013-10-01 23:53:00,
2013-10-01 19:54:00,73.0,59.7,29.99,SW,236,0.0,4.0,57,0.00,,,0.00,meteohub,2013-10-01 23:54:00,
2013-10-01 19:56:00,73.0,59.7,29.99,SW,236,0.0,3.0,57,0.00,,,0.00,meteohub,2013-10-01 23:56:00,
2013-10-01 19:57:00,73.0,60.3,29.99,SSW,213,0.0,3.0,58,0.00,,,0.00,meteohub,2013-10-01 23:57:00,
2013-10-01 19:58:00,72.9,60.8,29.99,WSW,258,0.0,3.0,59,0.00,,,0.00,meteohub,2013-10-01 23:58:00,
2013-10-01 20:01:00,72.9,60.6,29.99,SSW,213,0.0,3.0,59,0.00,,,0.00,meteohub,2013-10-02 00:01:00,
2013-10-01 20:02:00,72.9,60.6,29.99,SSW,213,0.0,3.0,59,0.00,,,0.00,meteohub,2013-10-02 00:02:00,
2013-10-01 20:03:00,72.7,61.0,29.99,SW,236,0.0,3.0,60,0.00,,,0.00,meteohub,2013-10-02 00:03:00,
2013-10-01 20:04:00,72.7,61.0,29.99,SSW,213,0.0,3.0,60,0.00,,,0.00,meteohub,2013-10-02 00:04:00,
2013-10-01 20:07:00,72.5,60.8,29.99,WSW,258,1.0,0.0,60,0.00,,,0.00,meteohub,2013-10-02 00:07:00,
2013-10-01 20:08:00,72.5,60.8,29.99,WSW,258,2.0,0.0,60,0.00,,,0.00,meteohub,2013-10-02 00:08:00,
2013-10-01 20:09:00,72.5,60.8,29.99,WNW,303,0.0,0.0,60,0.00,,,0.00,meteohub,2013-10-02 00:09:00,
2013-10-01 20:12:00,72.3,60.6,29.99,WSW,258,0.0,2.0,60,0.00,,,0.00,meteohub,2013-10-02 00:12:00,
2013-10-01 20:13:00,72.3,60.6,29.99,WSW,258,0.0,2.0,60,0.00,,,0.00,meteohub,2013-10-02 00:13:00,
2013-10-01 20:14:00,72.3,60.6,29.99,WSW,258,0.0,2.0,60,0.00,,,0.00,meteohub,2013-10-02 00:14:00,
2013-10-01 20:17:00,72.1,60.1,29.99,WSW,258,0.0,2.0,59,0.00,,,0.00,meteohub,2013-10-02 00:17:00,
2013-10-01 20:19:00,72.1,60.1,29.99,WSW,258,0.0,2.0,59,0.00,,,0.00,meteohub,2013-10-02 00:19:00,
2013-10-01 20:22:00,72.0,60.1,29.99,WSW,258,0.0,2.0,59,0.00,,,0.00,meteohub,2013-10-02 00:22:00,
2013-10-01 20:24:00,72.0,60.4,29.99,WSW,258,0.0,2.0,60,0.00,,,0.00,meteohub,2013-10-02 00:24:00,
2013-10-01 20:25:00,72.0,60.4,29.99,WSW,258,0.0,2.0,60,0.00,,,0.00,meteohub,2013-10-02 00:25:00,
2013-10-01 20:27:00,71.8,61.3,29.99,WNW,303,0.0,0.0,62,0.00,,,0.00,meteohub,2013-10-02 00:27:00,
2013-10-01 20:28:00,71.8,61.3,29.99,WNW,303,0.0,0.0,62,0.00,,,0.00,meteohub,2013-10-02 00:28:00,
2013-10-01 20:30:00,71.6,61.2,29.99,WNW,303,0.0,0.0,62,0.00,,,0.00,meteohub,2013-10-02 00:30:00,
2013-10-01 20:31:00,71.6,61.2,29.99,West,280,0.0,0.0,62,0.00,,,0.00,meteohub,2013-10-02 00:31:00,
2013-10-01 20:33:00,71.6,61.2,29.99,West,280,0.0,0.0,62,0.00,,,0.00,meteohub,2013-10-02 00:33:00,
2013-10-01 20:35:00,71.4,61.0,29.99,WSW,258,0.0,0.0,62,0.00,,,0.00,meteohub,2013-10-02 00:35:00,
2013-10-01 20:36:00,71.4,61.3,29.99,WSW,258,0.0,0.0,63,0.00,,,0.00,meteohub,2013-10-02 00:36:00,
2013-10-01 20:37:00,71.4,61.3,29.99,WSW,258,0.0,0.0,63,0.00,,,0.00,meteohub,2013-10-02 00:37:00,
2013-10-01 20:39:00,71.2,61.3,29.99,SW,236,0.0,0.0,63,0.00,,,0.00,meteohub,2013-10-02 00:39:00,
2013-10-01 20:40:00,71.2,61.3,29.99,WSW,258,0.0,0.0,63,0.00,,,0.00,meteohub,2013-10-02 00:40:00,
2013-10-01 20:41:00,71.2,61.3,29.99,WSW,258,0.0,0.0,63,0.00,,,0.00,meteohub,2013-10-02 00:41:00,
2013-10-01 20:42:00,71.2,61.0,29.99,WSW,258,0.0,0.0,62,0.00,,,0.00,meteohub,2013-10-02 00:42:00,
2013-10-01 20:45:00,71.2,61.3,29.99,SW,236,0.0,0.0,63,0.00,,,0.00,meteohub,2013-10-02 00:45:00,
2013-10-01 20:46:00,71.1,61.3,29.99,SW,236,0.0,0.0,63,0.00,,,0.00,meteohub,2013-10-02 00:46:00,
2013-10-01 20:47:00,71.1,61.3,29.99,SSW,213,0.0,0.0,63,0.00,,,0.00,meteohub,2013-10-02 00:47:00,
2013-10-01 20:48:00,71.1,61.7,29.99,SSW,213,0.0,0.0,64,0.00,,,0.00,meteohub,2013-10-02 00:48:00,
2013-10-01 20:50:00,71.1,62.1,29.99,SSW,213,0.0,0.0,65,0.00,,,0.00,meteohub,2013-10-02 00:50:00,
2013-10-01 20:51:00,71.1,62.1,29.99,SSW,213,0.0,0.0,65,0.00,,,0.00,meteohub,2013-10-02 00:51:00,
2013-10-01 20:52:00,70.9,61.7,29.99,SW,236,0.0,0.0,64,0.00,,,0.00,meteohub,2013-10-02 00:52:00,
2013-10-01 20:53:00,70.9,61.5,29.99,SW,236,0.0,0.0,64,0.00,,,0.00,meteohub,2013-10-02 00:53:00,
2013-10-01 20:55:00,70.9,61.0,29.99,WSW,258,0.0,0.0,63,0.00,,,0.00,meteohub,2013-10-02 00:55:00,
2013-10-01 20:56:00,70.7,61.0,29.99,SW,236,0.0,0.0,63,0.00,,,0.00,meteohub,2013-10-02 00:56:00,
2013-10-01 20:57:00,70.7,61.0,29.99,SW,236,0.0,0.0,63,0.00,,,0.00,meteohub,2013-10-02 00:57:00,
2013-10-01 20:58:00,70.7,60.4,29.99,WSW,258,0.0,0.0,62,0.00,,,0.00,meteohub,2013-10-02 00:58:00,
2013-10-01 20:59:00,70.7,60.4,29.99,SSW,213,0.0,0.0,62,0.00,,,0.00,meteohub,2013-10-02 00:59:00,
2013-10-01 21:00:00,70.7,60.4,29.99,SW,236,0.0,0.0,62,0.00,,,0.00,meteohub,2013-10-02 01:00:00,
2013-10-01 21:02:00,70.5,60.3,29.99,SW,236,0.0,0.0,62,0.00,,,0.00,meteohub,2013-10-02 01:02:00,
2013-10-01 21:04:00,70.5,60.3,29.99,WNW,303,0.0,0.0,62,0.00,,,0.00,meteohub,2013-10-02 01:04:00,
2013-10-01 21:05:00,70.5,60.8,29.99,WNW,303,0.0,0.0,63,0.00,,,0.00,meteohub,2013-10-02 01:05:00,
2013-10-01 21:08:00,70.3,61.5,29.99,West,280,0.0,0.0,65,0.00,,,0.00,meteohub,2013-10-02 01:08:00,
2013-10-01 21:09:00,70.3,61.5,29.99,WSW,258,0.0,0.0,65,0.00,,,0.00,meteohub,2013-10-02 01:09:00,
2013-10-01 21:10:00,70.3,61.5,29.99,WNW,303,0.0,0.0,65,0.00,,,0.00,meteohub,2013-10-02 01:10:00,
2013-10-01 21:11:00,70.3,61.5,29.99,WNW,303,0.0,0.0,65,0.00,,,0.00,meteohub,2013-10-02 01:11:00,
2013-10-01 21:13:00,70.2,61.3,29.99,SW,236,0.0,0.0,65,0.00,,,0.00,meteohub,2013-10-02 01:13:00,
2013-10-01 21:15:00,70.2,61.3,29.99,SW,236,0.0,0.0,65,0.00,,,0.00,meteohub,2013-10-02 01:15:00,
2013-10-01 21:16:00,70.2,61.3,29.99,WSW,258,0.0,0.0,65,0.00,,,0.00,meteohub,2013-10-02 01:16:00,
2013-10-01 21:18:00,70.0,60.8,29.99,WSW,258,0.0,0.0,64,0.00,,,0.00,meteohub,2013-10-02 01:18:00,
2013-10-01 21:20:00,70.0,60.8,29.99,SW,236,0.0,0.0,64,0.00,,,0.00,meteohub,2013-10-02 01:20:00,
2013-10-01 21:21:00,70.0,61.3,29.99,SSW,213,0.0,0.0,65,0.00,,,0.00,meteohub,2013-10-02 01:21:00,
2013-10-01 21:22:00,69.8,61.2,29.99,WSW,258,0.0,0.0,65,0.00,,,0.00,meteohub,2013-10-02 01:22:00,
2013-10-01 21:23:00,69.8,61.2,29.99,WSW,258,0.0,0.0,65,0.00,,,0.00,meteohub,2013-10-02 01:23:00,
2013-10-01 21:25:00,69.8,61.2,29.99,SW,236,0.0,0.0,65,0.00,,,0.00,meteohub,2013-10-02 01:25:00,
2013-10-01 21:27:00,69.8,61.2,29.99,WSW,258,0.0,0.0,65,0.00,,,0.00,meteohub,2013-10-02 01:27:00,
2013-10-01 21:29:00,69.8,61.2,29.99,WSW,258,0.0,0.0,65,0.00,,,0.00,meteohub,2013-10-02 01:29:00,
2013-10-01 21:32:00,69.6,61.5,29.99,SW,236,0.0,0.0,66,0.00,,,0.00,meteohub,2013-10-02 01:32:00,
2013-10-01 21:35:00,69.6,61.0,29.99,SW,236,0.0,0.0,65,0.00,,,0.00,meteohub,2013-10-02 01:35:00,
2013-10-01 21:37:00,69.6,61.0,29.99,SW,236,0.0,0.0,65,0.00,,,0.00,meteohub,2013-10-02 01:37:00,
2013-10-01 21:38:00,69.6,61.0,29.99,WSW,258,0.0,0.0,65,0.00,,,0.00,meteohub,2013-10-02 01:38:00,
2013-10-01 21:40:00,69.6,61.0,29.99,SW,236,0.0,0.0,65,0.00,,,0.00,meteohub,2013-10-02 01:40:00,
2013-10-01 21:42:00,69.4,60.8,29.99,SSW,213,0.0,0.0,65,0.00,,,0.00,meteohub,2013-10-02 01:42:00,
2013-10-01 21:43:00,69.4,61.2,29.99,SW,236,0.0,0.0,66,0.00,,,0.00,meteohub,2013-10-02 01:43:00,
2013-10-01 21:44:00,69.4,61.2,29.99,SW,236,0.0,0.0,66,0.00,,,0.00,meteohub,2013-10-02 01:44:00,
2013-10-01 21:45:00,69.6,61.2,29.99,WSW,258,3.0,0.0,66,0.00,,,0.00,meteohub,2013-10-02 01:45:00,
2013-10-01 21:47:00,69.6,61.2,29.99,WSW,258,2.0,0.0,66,0.00,,,0.00,meteohub,2013-10-02 01:47:00,
2013-10-01 21:48:00,69.6,61.2,29.99,WSW,258,3.0,0.0,66,0.00,,,0.00,meteohub,2013-10-02 01:48:00,
2013-10-01 21:49:00,69.4,61.0,29.99,SW,236,1.0,0.0,66,0.00,,,0.00,meteohub,2013-10-02 01:49:00,
2013-10-01 21:50:00,69.4,61.0,29.99,WSW,258,3.0,0.0,66,0.00,,,0.00,meteohub,2013-10-02 01:50:00,
2013-10-01 21:53:00,69.4,61.0,29.99,West,280,0.0,3.0,66,0.00,,,0.00,meteohub,2013-10-02 01:53:00,
2013-10-01 21:54:00,69.4,61.5,29.99,SW,236,2.0,3.0,67,0.00,,,0.00,meteohub,2013-10-02 01:54:00,
2013-10-01 21:55:00,69.4,61.5,29.99,SW,236,2.0,4.0,67,0.00,,,0.00,meteohub,2013-10-02 01:55:00,
2013-10-01 21:56:00,69.4,61.5,29.99,WSW,258,2.0,4.0,67,0.00,,,0.00,meteohub,2013-10-02 01:56:00,
2013-10-01 21:58:00,69.4,61.0,29.99,WSW,258,0.0,4.0,66,0.00,,,0.00,meteohub,2013-10-02 01:58:00,
2013-10-01 21:59:00,69.4,61.0,29.99,WSW,258,1.0,4.0,66,0.00,,,0.00,meteohub,2013-10-02 01:59:00,
2013-10-01 22:00:00,69.4,61.0,29.99,WSW,258,3.0,4.0,66,0.00,,,0.00,meteohub,2013-10-02 02:00:00,
2013-10-01 22:01:00,69.4,61.0,29.99,SW,236,2.0,4.0,66,0.00,,,0.00,meteohub,2013-10-02 02:01:00,
2013-10-01 22:03:00,69.4,61.0,29.99,WSW,258,2.0,4.0,66,0.00,,,0.00,meteohub,2013-10-02 02:03:00,
2013-10-01 22:04:00,69.4,61.5,29.99,WSW,258,3.0,4.0,67,0.00,,,0.00,meteohub,2013-10-02 02:04:00,
2013-10-01 22:06:00,69.4,61.5,29.99,SW,236,4.0,4.0,67,0.00,,,0.00,meteohub,2013-10-02 02:06:00,
2013-10-01 22:07:00,69.4,61.5,29.99,WSW,258,3.0,4.0,67,0.00,,,0.00,meteohub,2013-10-02 02:07:00,
2013-10-01 22:08:00,69.3,61.3,29.99,WSW,258,0.0,4.0,67,0.00,,,0.00,meteohub,2013-10-02 02:08:00,
2013-10-01 22:09:00,69.3,61.3,29.99,SSW,213,2.0,4.0,67,0.00,,,0.00,meteohub,2013-10-02 02:09:00,
2013-10-01 22:12:00,69.3,61.3,29.99,SW,236,2.0,4.0,67,0.00,,,0.00,meteohub,2013-10-02 02:12:00,
2013-10-01 22:13:00,69.3,61.3,29.99,WSW,258,2.0,4.0,67,0.00,,,0.00,meteohub,2013-10-02 02:13:00,
2013-10-01 22:14:00,69.3,60.8,29.99,SW,236,2.0,4.0,66,0.00,,,0.00,meteohub,2013-10-02 02:14:00,
2013-10-01 22:17:00,69.3,60.8,29.99,SW,236,3.0,4.0,66,0.00,,,0.00,meteohub,2013-10-02 02:17:00,
2013-10-01 22:19:00,69.3,60.6,29.99,SSW,213,0.0,4.0,66,0.00,,,0.00,meteohub,2013-10-02 02:19:00,
2013-10-01 22:22:00,69.1,60.6,29.99,SW,236,2.0,4.0,66,0.00,,,0.00,meteohub,2013-10-02 02:22:00,
2013-10-01 22:24:00,69.1,60.6,29.99,SW,236,1.0,4.0,66,0.00,,,0.00,meteohub,2013-10-02 02:24:00,
2013-10-01 22:25:00,69.1,60.6,29.99,WSW,258,0.0,4.0,66,0.00,,,0.00,meteohub,2013-10-02 02:25:00,
2013-10-01 22:26:00,69.1,60.6,29.99,WSW,258,0.0,4.0,66,0.00,,,0.00,meteohub,2013-10-02 02:26:00,
2013-10-01 22:28:00,69.1,61.2,30.02,WSW,258,2.0,4.0,67,0.00,,,0.00,meteohub,2013-10-02 02:28:00,
2013-10-01 22:30:00,69.1,61.2,30.02,WSW,258,3.0,4.0,67,0.00,,,0.00,meteohub,2013-10-02 02:30:00,
2013-10-01 22:31:00,69.1,61.2,30.02,SSW,213,2.0,4.0,67,0.00,,,0.00,meteohub,2013-10-02 02:31:00,
2013-10-01 22:33:00,69.1,61.0,30.02,WSW,258,3.0,4.0,67,0.00,,,0.00,meteohub,2013-10-02 02:33:00,
2013-10-01 22:35:00,69.1,61.0,30.02,WSW,258,4.0,4.0,67,0.00,,,0.00,meteohub,2013-10-02 02:35:00,
2013-10-01 22:36:00,69.1,61.0,30.02,WSW,258,4.0,4.0,67,0.00,,,0.00,meteohub,2013-10-02 02:36:00,
2013-10-01 22:37:00,68.9,61.3,30.02,WSW,258,2.0,3.0,68,0.00,,,0.00,meteohub,2013-10-02 02:37:00,
2013-10-01 22:38:00,68.9,61.3,30.02,WSW,258,2.0,3.0,68,0.00,,,0.00,meteohub,2013-10-02 02:38:00,
2013-10-01 22:41:00,68.9,61.3,30.02,WSW,258,2.0,4.0,68,0.00,,,0.00,meteohub,2013-10-02 02:41:00,
2013-10-01 22:42:00,68.9,61.3,30.02,WSW,258,2.0,4.0,68,0.00,,,0.00,meteohub,2013-10-02 02:42:00,
2013-10-01 22:43:00,68.9,61.0,30.02,SW,236,4.0,4.0,67,0.00,,,0.00,meteohub,2013-10-02 02:43:00,
2013-10-01 22:46:00,68.9,61.3,30.02,SW,236,1.0,4.0,68,0.00,,,0.00,meteohub,2013-10-02 02:46:00,
2013-10-01 22:47:00,68.9,61.3,30.02,SSW,213,3.0,4.0,68,0.00,,,0.00,meteohub,2013-10-02 02:47:00,
2013-10-01 22:48:00,68.9,61.2,30.02,SSW,213,3.0,4.0,68,0.00,,,0.00,meteohub,2013-10-02 02:48:00,
2013-10-01 22:49:00,68.9,61.2,30.02,SW,236,4.0,4.0,68,0.00,,,0.00,meteohub,2013-10-02 02:49:00,
2013-10-01 22:52:00,68.9,61.2,30.02,SW,236,2.0,4.0,68,0.00,,,0.00,meteohub,2013-10-02 02:52:00,
2013-10-01 22:54:00,68.7,61.2,30.02,SSW,213,4.0,4.0,68,0.00,,,0.00,meteohub,2013-10-02 02:54:00,
2013-10-01 22:55:00,68.7,61.2,30.02,SW,236,3.0,4.0,68,0.00,,,0.00,meteohub,2013-10-02 02:55:00,
2013-10-01 22:57:00,68.7,61.2,30.02,WSW,258,2.0,4.0,68,0.00,,,0.00,meteohub,2013-10-02 02:57:00,
2013-10-01 22:59:00,68.7,61.0,30.02,SSW,213,2.0,4.0,68,0.00,,,0.00,meteohub,2013-10-02 02:59:00,
2013-10-01 23:00:00,68.7,61.0,30.02,WSW,258,2.0,4.0,68,0.00,,,0.00,meteohub,2013-10-02 03:00:00,
2013-10-01 23:02:00,68.7,61.0,30.02,SSW,213,2.0,4.0,68,0.00,,,0.00,meteohub,2013-10-02 03:02:00,
2013-10-01 23:03:00,68.7,61.0,30.02,SW,236,2.0,4.0,68,0.00,,,0.00,meteohub,2013-10-02 03:03:00,
2013-10-01 23:04:00,68.7,61.0,30.02,WSW,258,3.0,4.0,68,0.00,,,0.00,meteohub,2013-10-02 03:04:00,
2013-10-01 23:05:00,68.7,61.0,30.02,SW,236,3.0,4.0,68,0.00,,,0.00,meteohub,2013-10-02 03:05:00,
2013-10-01 23:08:00,68.5,61.0,30.02,WSW,258,2.0,4.0,68,0.00,,,0.00,meteohub,2013-10-02 03:08:00,
2013-10-01 23:09:00,68.5,61.0,30.02,SSW,213,3.0,4.0,68,0.00,,,0.00,meteohub,2013-10-02 03:09:00,
2013-10-01 23:11:00,68.5,61.0,30.02,SW,236,2.0,4.0,68,0.00,,,0.00,meteohub,2013-10-02 03:11:00,
2013-10-01 23:13:00,68.5,60.4,30.02,SSW,213,3.0,4.0,67,0.00,,,0.00,meteohub,2013-10-02 03:13:00,
2013-10-01 23:14:00,68.4,60.8,30.02,SW,236,2.0,4.0,68,0.00,,,0.00,meteohub,2013-10-02 03:14:00,
2013-10-01 23:15:00,68.4,60.8,30.02,SW,236,2.0,4.0,68,0.00,,,0.00,meteohub,2013-10-02 03:15:00,
2013-10-01 23:16:00,68.4,60.8,30.02,WSW,258,2.0,3.0,68,0.00,,,0.00,meteohub,2013-10-02 03:16:00,
2013-10-01 23:18:00,68.4,60.8,30.02,SSW,213,3.0,3.0,68,0.00,,,0.00,meteohub,2013-10-02 03:18:00,
2013-10-01 23:20:00,68.4,60.8,30.02,SW,236,3.0,3.0,68,0.00,,,0.00,meteohub,2013-10-02 03:20:00,
2013-10-01 23:21:00,68.4,60.8,30.02,SSW,213,2.0,3.0,68,0.00,,,0.00,meteohub,2013-10-02 03:21:00,
2013-10-01 23:22:00,68.4,60.8,30.02,WSW,258,3.0,3.0,68,0.00,,,0.00,meteohub,2013-10-02 03:22:00,
2013-10-01 23:23:00,68.4,60.8,30.02,SW,236,3.0,3.0,68,0.00,,,0.00,meteohub,2013-10-02 03:23:00,
2013-10-01 23:25:00,68.4,60.8,30.02,WSW,258,2.0,4.0,68,0.00,,,0.00,meteohub,2013-10-02 03:25:00,
2013-10-01 23:26:00,68.4,60.8,30.02,SW,236,3.0,4.0,68,0.00,,,0.00,meteohub,2013-10-02 03:26:00,
2013-10-01 23:27:00,68.4,60.6,30.02,SW,236,4.0,4.0,68,0.00,,,0.00,meteohub,2013-10-02 03:27:00,
2013-10-01 23:28:00,68.4,60.6,30.02,WSW,258,2.0,4.0,68,0.00,,,0.00,meteohub,2013-10-02 03:28:00,
2013-10-01 23:30:00,68.4,60.6,30.02,WSW,258,2.0,4.0,68,0.00,,,0.00,meteohub,2013-10-02 03:30:00,
2013-10-01 23:31:00,68.2,60.6,30.02,WSW,258,2.0,4.0,68,0.00,,,0.00,meteohub,2013-10-02 03:31:00,
2013-10-01 23:32:00,68.2,60.6,30.02,WSW,258,3.0,4.0,68,0.00,,,0.00,meteohub,2013-10-02 03:32:00,
2013-10-01 23:33:00,68.2,60.6,30.02,WSW,258,3.0,4.0,68,0.00,,,0.00,meteohub,2013-10-02 03:33:00,
2013-10-01 23:34:00,68.2,60.6,30.02,WNW,303,4.0,4.0,68,0.00,,,0.00,meteohub,2013-10-02 03:34:00,
2013-10-01 23:36:00,68.2,60.6,30.02,WSW,258,2.0,4.0,68,0.00,,,0.00,meteohub,2013-10-02 03:36:00,
2013-10-01 23:37:00,68.2,60.6,30.02,WSW,258,3.0,4.0,68,0.00,,,0.00,meteohub,2013-10-02 03:37:00,
2013-10-01 23:38:00,68.2,60.6,30.02,WSW,258,3.0,4.0,68,0.00,,,0.00,meteohub,2013-10-02 03:38:00,
2013-10-01 23:39:00,68.2,60.6,30.02,WSW,258,2.0,4.0,68,0.00,,,0.00,meteohub,2013-10-02 03:39:00,
2013-10-01 23:41:00,68.2,60.6,30.02,SW,236,4.0,6.0,68,0.00,,,0.00,meteohub,2013-10-02 03:41:00,
2013-10-01 23:42:00,68.2,60.6,30.02,West,280,2.0,6.0,68,0.00,,,0.00,meteohub,2013-10-02 03:42:00,
2013-10-01 23:43:00,68.2,60.6,30.02,WSW,258,2.0,6.0,68,0.00,,,0.00,meteohub,2013-10-02 03:43:00,
2013-10-01 23:44:00,68.2,60.6,30.02,West,280,3.0,6.0,68,0.00,,,0.00,meteohub,2013-10-02 03:44:00,
2013-10-01 23:45:00,68.2,60.6,30.02,SW,236,3.0,6.0,68,0.00,,,0.00,meteohub,2013-10-02 03:45:00,
2013-10-01 23:46:00,68.2,61.0,30.02,WSW,258,2.0,6.0,69,0.00,,,0.00,meteohub,2013-10-02 03:46:00,
2013-10-01 23:47:00,68.2,61.0,30.02,WSW,258,5.0,6.0,69,0.00,,,0.00,meteohub,2013-10-02 03:47:00,
2013-10-01 23:48:00,68.2,60.4,30.02,SSW,213,4.0,6.0,68,0.00,,,0.00,meteohub,2013-10-02 03:48:00,
2013-10-01 23:49:00,68.2,60.4,30.02,WSW,258,4.0,6.0,68,0.00,,,0.00,meteohub,2013-10-02 03:49:00,
2013-10-01 23:50:00,68.2,60.4,30.02,SSW,213,4.0,6.0,68,0.00,,,0.00,meteohub,2013-10-02 03:50:00,
2013-10-01 23:51:00,68.2,60.4,30.02,WSW,258,2.0,6.0,68,0.00,,,0.00,meteohub,2013-10-02 03:51:00,
2013-10-01 23:52:00,68.2,60.4,30.02,WSW,258,2.0,6.0,68,0.00,,,0.00,meteohub,2013-10-02 03:52:00,
2013-10-01 23:53:00,68.2,60.4,30.02,SW,236,4.0,6.0,68,0.00,,,0.00,meteohub,2013-10-02 03:53:00,
2013-10-01 23:54:00,68.2,60.4,30.02,WNW,303,4.0,6.0,68,0.00,,,0.00,meteohub,2013-10-02 03:54:00,
2013-10-01 23:55:00,68.2,60.4,30.02,SW,236,3.0,6.0,68,0.00,,,0.00,meteohub,2013-10-02 03:55:00,
2013-10-01 23:57:00,68.0,60.4,30.02,SW,236,3.0,6.0,68,0.00,,,0.00,meteohub,2013-10-02 03:57:00,
2013-10-01 23:58:00,68.0,60.4,30.02,SW,236,4.0,6.0,68,0.00,,,0.00,meteohub,2013-10-02 03:58:00,
2013-10-01 23:59:00,68.0,60.4,30.02,WSW,258,5.0,6.0,68,0.00,,,0.00,meteohub,2013-10-02 03:59:00,